SQ7IQO Weather Reports


Display with metric or nautical units.
time (UTC)temp
F
wind
direction
speed
MPH
gust
MPH
rain 1hr
in
rain 24hr
in
rain mn
in
humidity
%
barometer
mb
20260905191337 54 1.0 3.0 1.53 4.79 0.00 94 1016.8
20260905191237 54 3.0 6.0 1.53 4.79 0.00 94 1016.8
20260905191137 54 2.0 6.0 1.53 4.79 0.00 94 1016.8
20260905191037 54 1.0 3.0 1.53 4.79 0.00 94 1016.8
20260905190937 54 3.0 6.0 1.53 4.79 0.00 94 1016.8
20260905190837 54 3.0 10.0 1.53 4.79 0.00 94 1016.8
20260905190737 54 3.0 6.0 1.53 4.79 0.00 94 1016.8
20260905190637 54 3.0 6.0 1.53 4.79 0.00 94 1016.8
20260905190537 54 4.0 10.0 1.53 4.79 0.00 94 1016.9
20260905190437 54 4.0 10.0 1.53 4.79 0.00 94 1016.9
20260905190337 54 4.0 10.0 1.53 4.79 0.00 94 1016.9
20260905190237 54 3.0 6.0 1.53 4.79 0.00 94 1017.0
20260905190137 54 3.0 10.0 1.53 4.79 0.00 94 1017.2
20260905190038 54 4.0 13.0 1.53 4.79 0.00 94 1017.2
20260905185938 54 4.0 13.0 1.53 4.79 0.00 94 1017.2
20260905185837 55 2.0 6.0 1.53 4.79 0.00 93 1017.2
20260905185737 55 4.0 10.0 1.53 4.79 0.00 93 1017.2
20260905185637 55 6.0 10.0 1.53 4.79 0.00 93 1017.3
20260905185537 55 4.0 16.0 1.53 4.79 0.00 93 1017.3
20260905185437 55 4.0 13.0 1.53 4.79 0.00 92 1017.2
20260905185337 55 4.0 13.0 0.86 4.72 0.00 93 1017.2
20260905185237 55 6.0 13.0 0.86 4.72 0.00 93 1017.1
20260905185137 55 4.0 10.0 0.86 4.72 0.00 92 1017.2
20260905185037 55 3.0 16.0 0.86 4.72 0.00 91 1017.3
20260905184937 55 4.0 10.0 0.86 4.72 0.00 91 1017.3
20260905184837 55 4.0 10.0 0.86 4.72 0.00 91 1017.3
20260905184737 56 9.0 268.0 0.00 4.64 0.00 91 1017.3
20260905184637 56 5.0 10.0 0.00 4.64 0.00 90 1017.4
20260905184537 56 3.0 20.0 0.00 4.64 0.00 87 1017.5
20260905184437 56 10.0 23.0 0.00 4.64 0.00 88 1017.3
20260905184337 57 8.0 16.0 0.86 4.64 0.00 87 1017.4
20260905184237 57 7.0 26.0 0.86 4.64 0.00 86 1017.3
20260905184137 57 10.0 16.0 0.86 4.64 0.00 88 1017.5
20260905184038 57 3.0 13.0 0.86 4.64 0.00 87 1017.4
20260905183937 57 6.0 16.0 0.86 4.64 0.00 86 1016.0
20260905183837 57 8.0 13.0 0.86 4.64 0.00 88 1017.0
20260905183737 57 8.0 13.0 0.86 4.64 0.00 88 1016.9
20260905183637 57 4.0 10.0 0.86 4.64 0.00 88 1017.0
20260905183537 57 4.0 13.0 0.86 4.64 0.00 88 1016.9
20260905183437 57 6.0 10.0 0.86 4.64 0.00 90 1017.0
20260905183337 56 4.0 13.0 0.86 4.64 0.00 90 1017.0
20260905183237 56 3.0 10.0 0.86 4.64 0.00 91 1017.0
20260905183137 56 3.0 6.0 0.86 4.64 0.00 92 1017.0
20260905183037 56 3.0 10.0 0.86 4.64 0.00 94 1017.1
20260905182937 56 2.0 6.0 0.86 4.64 0.00 94 1017.0
20260905182837 56 2.0 3.0 0.86 4.64 0.00 94 1017.1
20260905182737 56 1.0 3.0 0.86 4.64 0.00 93 1016.9
20260905182637 56 1.0 3.0 0.86 4.64 0.00 94 1016.9
20260905182537 56 1.0 6.0 0.86 4.64 0.00 94 1016.8
20260905182437 56 1.0 6.0 0.86 4.64 0.00 94 1016.7
20260905182337 56 1.0 6.0 0.86 4.64 0.00 94 1016.5
20260905182237 56 0.0 6.0 0.86 4.64 0.00 94 1016.5
20260905182137 56 0.0 3.0 0.86 4.64 0.00 93 1016.5
20260905182037 56 0.0 6.0 0.86 4.64 0.00 93 1016.5
20260905181937 56 1.0 3.0 0.86 4.64 0.00 93 1016.6
20260905181837 56 0.0 3.0 0.86 4.64 0.00 93 1016.5
20260905181737 56 0.0 3.0 0.86 4.64 0.00 93 1016.6
20260905181637 56 0.0 3.0 0.86 4.64 0.00 93 1016.6
20260905181537 56 1.0 6.0 0.86 4.64 0.00 93 1016.6
20260905181437 56 1.0 6.0 0.86 4.64 0.00 93 1016.6
20260905181337 56 0.0 3.0 0.86 4.64 0.00 92 1016.7
20260905181237 56 1.0 6.0 0.86 4.64 0.00 92 1016.7
20260905181137 56 1.0 3.0 0.86 4.64 0.00 92 1016.6
20260905181037 56 0.0 6.0 0.86 4.64 0.00 92 1016.6
20260905180937 56 1.0 3.0 0.86 4.64 0.00 92 1016.6
20260905180837 56 1.0 3.0 0.86 4.64 0.00 92 1016.6
20260905180737 56 2.0 6.0 0.86 4.64 0.00 92 1016.7
20260905180637 56 2.0 6.0 0.86 4.64 0.00 92 1016.8
20260905180537 56 1.0 6.0 0.86 4.64 0.00 93 1016.7
20260905180437 56 2.0 6.0 0.86 4.64 0.00 93 1016.8
20260905180337 56 1.0 3.0 0.86 4.64 0.00 93 1016.7
20260905180237 56 1.0 6.0 0.86 4.64 0.00 93 1016.7
20260905180137 56 1.0 6.0 0.86 4.64 0.00 93 1016.7
20260905180037 56 1.0 6.0 0.86 4.64 0.00 93 1016.7
20260905175937 56 1.0 6.0 0.86 4.64 0.00 92 1016.6
20260905175837 56 2.0 6.0 0.86 4.64 0.00 93 1016.6
20260905175737 56 3.0 6.0 0.86 4.64 0.00 93 1016.7
20260905175637 56 2.0 6.0 0.86 4.64 0.00 93 1016.7
20260905175537 56 3.0 6.0 0.86 4.64 0.00 93 1016.7
20260905175437 56 2.0 6.0 0.86 4.64 0.00 93 1016.8
20260905175337 56 2.0 6.0 0.86 4.64 0.00 93 1016.8
20260905175237 56 3.0 6.0 0.86 4.64 0.00 93 1016.8
20260905175137 56 2.0 6.0 0.86 4.64 0.00 92 1016.7
20260905175037 56 4.0 6.0 0.86 4.64 0.00 92 1016.7
20260905174937 56 3.0 13.0 0.86 4.64 0.00 92 1016.7
20260905174837 56 4.0 10.0 0.86 4.64 0.00 92 1016.8
20260905174737 56 4.0 10.0 0.86 4.64 0.00 92 1016.8
20260905174637 56 5.0 10.0 0.86 4.64 0.00 92 1016.7
20260905174537 56 4.0 10.0 0.86 4.64 0.00 92 1016.8
20260905174437 56 3.0 10.0 0.86 4.64 0.00 91 1016.7
20260905174337 56 5.0 13.0 0.86 4.64 0.00 91 1016.7
20260905174237 57 5.0 10.0 0.00 4.55 0.00 90 1016.7
20260905174137 57 4.0 6.0 0.00 4.55 0.00 89 1016.7
20260905174037 57 6.0 13.0 0.00 4.55 0.00 89 1016.6
20260905173937 57 3.0 13.0 0.00 4.55 0.00 88 1016.6
20260905173837 57 3.0 10.0 0.00 4.55 0.00 88 1016.7
20260905173737 57 3.0 10.0 0.00 4.55 0.00 88 1016.6
20260905173637 57 4.0 10.0 0.00 4.55 0.00 87 1016.6
20260905173537 57 5.0 10.0 0.00 4.55 0.00 88 1016.6
20260905173437 57 4.0 10.0 0.00 4.55 0.00 88 1016.6
20260905173337 57 5.0 10.0 0.00 4.55 0.00 88 1281.5
20260905173237 57 4.0 6.0 0.00 4.55 0.00 89 1016.6
20260905173137 57 1.0 3.0 0.86 4.55 0.00 88 1016.6
20260905173037 57 3.0 6.0 0.86 4.55 0.00 88 1016.5
20260905172937 56 5.0 13.0 0.86 4.55 0.00 91 1016.5
20260905172837 56 2.0 6.0 0.86 4.55 0.00 91 1016.4
20260905172737 56 0.0 3.0 0.86 4.55 0.00 91 1016.4
20260905172637 56 0.0 3.0 0.86 4.55 0.00 90 1016.3
20260905172537 56 1.0 6.0 1.77 4.55 0.00 91 1016.2
20260905172437 56 0.0 63.0 1.77 4.55 0.00 90 1016.2
20260905172337 56 2.0 3.0 1.77 4.55 0.00 91 1280.8
20260905172237 56 0.0 3.0 2.51 4.55 0.00 90 1280.8
20260905172137 56 0.0 3.0 2.51 4.55 0.00 90 1016.2
20260905172037 56 1.0 6.0 2.51 4.55 0.00 91 1016.2
20260905171937 56 1.0 3.0 3.42 4.55 0.00 91 1016.2
20260905171837 56 0.0 3.0 3.42 4.55 0.00 91 1016.2
20260905171737 56 0.0 3.0 3.42 4.55 0.00 91 1016.2
20260905171637 56 0.0 3.0 3.42 4.55 0.00 90 1016.1
20260905171537 57 1.0 3.0 3.42 4.55 0.00 90 1016.2
20260905171437 56 1.0 6.0 3.42 4.55 0.00 91 1016.2
20260905171337 56 0.0 3.0 3.42 4.55 0.00 90 1016.2
20260905171237 56 1.0 6.0 3.42 4.55 0.00 91 1016.2
20260905171137 57 1.0 3.0 3.42 4.55 0.00 92 1280.7
20260905171037 57 1.0 3.0 3.42 4.55 0.00 92 1016.2
20260905170937 57 0.0 3.0 3.42 4.55 0.00 91 1016.1
20260905170837 57 1.0 3.0 3.42 4.55 0.00 92 1016.1
20260905170737 56 0.0 3.0 3.42 4.55 0.00 92 1016.2
20260905170637 57 0.0 3.0 4.40 4.55 0.00 92 1016.2
20260905170537 57 0.0 6.0 4.40 4.55 0.00 92 1016.2
20260905170437 57 1.0 3.0 4.40 4.55 0.00 93 1016.1
20260905170337 57 0.0 6.0 4.40 4.55 0.00 93 1016.1
20260905170238 57 0.0 3.0 4.40 4.55 0.00 94 1016.1
20260905170137 57 0.0 6.0 4.40 4.55 0.00 94 1016.1
20260905170037 57 0.0 6.0 4.40 4.55 0.00 94 1016.1
20260905165937 57 1.0 3.0 4.40 4.55 0.00 94 1016.1
20260905165837 57 0.0 0.0 4.40 4.55 0.00 94 1016.1
20260905165737 57 0.0 3.0 4.40 4.55 0.00 94 684.4
20260905165637 56 0.0 3.0 4.40 4.55 0.00 94 684.4
20260905165537 56 0.0 3.0 4.40 4.55 0.00 94 684.4
20260905165437 57 0.0 3.0 4.40 4.55 0.00 94 1016.2
20260905165337 56 0.0 3.0 4.40 4.55 0.00 94 1016.2
20260905165237 57 0.0 3.0 4.40 4.55 0.00 94 1016.2
20260905165137 56 0.0 3.0 4.40 4.55 0.00 94 1016.2
20260905165037 56 0.0 3.0 4.40 4.55 0.00 94 1016.2
20260905164937 56 0.0 3.0 4.40 4.55 0.00 94 1016.2
20260905164837 57 1.0 6.0 4.40 4.55 0.00 94 1016.2
20260905164737 57 0.0 3.0 4.40 4.55 0.00 94 1016.2
20260905164637 57 0.0 3.0 4.40 4.55 0.00 93 1016.2
20260905164537 57 0.0 3.0 4.40 4.55 0.00 93 1016.2
20260905164437 57 0.0 0.0 4.40 4.55 0.00 93 1016.2
20260905164337 57 0.0 6.0 4.40 4.55 0.00 93 1016.2
20260905164237 57 0.0 3.0 4.40 4.55 0.00 92 1016.3
20260905164137 57 2.0 6.0 4.40 4.55 0.00 93 1016.3
20260905164037 57 1.0 3.0 4.40 4.55 0.00 93 1016.3
20260905163937 57 1.0 3.0 4.40 4.55 0.00 93 1016.3
20260905163837 57 1.0 6.0 4.40 4.55 0.00 93 1016.3
20260905163737 57 1.0 3.0 4.40 4.55 0.00 93 1016.4
20260905163637 57 1.0 3.0 4.40 4.55 0.00 92 1016.5
20260905163537 57 2.0 6.0 4.40 4.55 0.00 92 1016.5
20260905163437 57 3.0 6.0 4.40 4.55 0.00 92 1016.6
20260905163337 57 2.0 10.0 4.40 4.55 0.00 92 1016.5
20260905163237 57 2.0 6.0 4.40 4.55 0.00 93 1016.5
20260905163137 57 2.0 6.0 4.40 4.55 0.00 93 1016.5
20260905163037 57 2.0 3.0 3.50 4.46 0.00 92 1016.5
20260905162937 57 3.0 6.0 3.50 4.46 0.00 92 1281.2
20260905162837 57 2.0 6.0 3.50 4.46 0.00 91 1016.6
20260905162737 57 4.0 6.0 3.50 4.46 0.00 91 1016.8
20260905162637 57 2.0 10.0 3.50 4.46 0.00 89 1016.8
20260905162537 58 6.0 13.0 3.50 4.46 0.00 89 1016.8
20260905162437 58 6.0 13.0 2.63 4.37 0.00 90 1016.9
20260905162337 58 3.0 6.0 2.63 4.37 0.00 90 1016.8
20260905162237 58 2.0 3.0 2.63 4.37 0.00 90 1016.9
20260905162137 58 2.0 6.0 1.85 4.29 0.00 89 1016.9
20260905162037 58 3.0 10.0 1.85 4.29 0.00 89 1016.8
20260905161937 58 2.0 6.0 1.85 4.29 0.00 88 1016.9
20260905161837 58 2.0 6.0 0.98 4.21 0.00 89 1016.8
20260905161737 58 1.0 3.0 0.98 4.21 0.00 88 1016.7
20260905161637 58 0.0 3.0 0.98 4.21 0.00 90 1016.6
20260905161537 58 0.0 3.0 0.98 4.21 0.00 89 1016.4
20260905161437 59 0.0 3.0 0.98 4.21 0.00 89 1016.3
20260905161337 59 0.0 3.0 0.98 4.21 0.00 89 1016.3
20260905161237 59 0.0 3.0 0.98 4.21 0.00 89 1016.3
20260905161137 59 0.0 3.0 0.98 4.21 0.00 88 1016.3
20260905161037 59 0.0 3.0 0.98 4.21 0.00 87 1016.2
20260905160937 59 0.0 3.0 0.98 4.21 0.00 87 1016.2
20260905160837 59 0.0 3.0 0.98 4.21 0.00 87 1016.1
20260905160737 59 0.0 0.0 0.98 4.21 0.00 88 1016.1
20260905160637 59 0.0 0.0 0.98 4.21 0.00 87 1016.0
20260905160537 59 0.0 0.0 0.00 4.11 0.00 85 1015.9
20260905160437 60 0.0 0.0 0.00 4.11 0.00 85 1015.8
20260905160337 60 0.0 0.0 0.00 4.11 0.00 85 1015.8
20260905160237 60 0.0 0.0 0.00 4.11 0.00 84 1015.8
20260905160137 60 0.0 0.0 0.00 4.11 0.00 85 1015.8
20260905160037 60 0.0 0.0 0.00 4.11 0.00 84 1015.7
20260905155937 60 0.0 0.0 0.00 4.11 0.00 84 1015.7
20260905155837 60 0.0 3.0 0.00 4.11 0.00 84 1015.7
20260905155737 60 0.0 3.0 0.00 4.11 0.00 84 1015.7
20260905155637 60 0.0 0.0 0.00 4.11 0.00 84 1015.7
20260905155537 60 0.0 0.0 0.00 4.11 0.00 85 1015.7
20260905155437 60 0.0 0.0 0.00 4.11 0.00 86 1015.7
20260905155337 60 0.0 0.0 0.00 4.11 0.00 84 1015.7
20260905155237 60 0.0 3.0 0.00 4.11 0.00 85 1015.8
20260905155137 60 0.0 0.0 0.00 4.11 0.00 85 1015.8
20260905155037 60 0.0 0.0 0.00 4.11 0.00 85 1015.8
20260905154937 60 0.0 0.0 0.00 4.11 0.00 84 1015.8
20260905154837 60 0.0 0.0 0.00 4.11 0.00 84 1015.8
20260905154737 60 0.0 0.0 0.00 4.11 0.00 84 1015.8
20260905154637 60 0.0 3.0 0.00 4.11 0.00 85 1015.9
20260905154537 60 0.0 0.0 0.00 4.11 0.00 84 1015.9
20260905154437 60 0.0 0.0 0.00 4.11 0.00 84 1015.9
20260905154337 60 0.0 0.0 0.00 4.11 0.00 83 1015.9
20260905154237 60 0.0 3.0 0.00 4.11 0.00 82 1015.9
20260905154137 60 0.0 3.0 0.00 4.11 0.00 82 1015.8
20260905154037 60 0.0 3.0 0.00 4.11 0.00 83 1015.8
20260905153937 60 0.0 3.0 0.00 4.11 0.00 83 2612.3
20260905153837 60 0.0 0.0 0.00 4.11 0.00 83 1015.8
20260905153737 60 0.0 3.0 0.00 4.11 0.00 83 1015.8
20260905153637 60 0.0 3.0 0.00 4.11 0.00 82 1015.8
20260905153537 60 0.0 3.0 0.00 4.11 0.00 83 1015.8
20260905153437 60 0.0 3.0 0.00 4.11 0.00 84 1015.8
20260905153337 60 0.0 0.0 0.00 4.11 0.00 83 1015.8
20260905153237 60 0.0 0.0 0.00 4.11 0.00 82 1015.8
20260905153137 61 0.0 0.0 0.00 4.11 0.00 81 1015.7
20260905153037 61 0.0 3.0 1.77 4.11 0.00 81 1015.7
20260905152937 61 0.0 3.0 1.77 4.11 0.00 81 1015.7
20260905152837 61 0.0 3.0 1.77 4.11 0.00 81 1015.7
20260905152737 61 0.0 0.0 1.77 4.11 0.00 79 1015.7
20260905152637 61 0.0 3.0 2.63 4.11 0.00 79 1015.7
20260905152537 61 0.0 0.0 2.63 4.11 0.00 77 1015.7
20260905152437 61 0.0 3.0 2.63 4.11 0.00 79 1015.6
20260905152337 61 0.0 3.0 2.63 4.11 0.00 79 1015.7
20260905152237 61 0.0 0.0 2.63 4.11 0.00 78 1280.9
20260905152137 61 0.0 0.0 2.63 4.11 0.00 82 1015.7
20260905152037 61 0.0 0.0 2.63 4.11 0.00 80 1015.7
20260905151937 61 0.0 3.0 2.63 4.11 0.00 79 1015.7
20260905151837 61 0.0 3.0 2.63 4.11 0.00 79 1015.7
20260905151737 61 0.0 3.0 2.63 4.11 0.00 78 1015.8
20260905151637 61 0.0 3.0 2.63 4.11 0.00 80 1015.8
20260905151537 61 0.0 0.0 2.63 4.11 0.00 80 1015.8
20260905151437 61 0.0 0.0 2.63 4.11 0.00 79 1015.8
20260905151337 61 0.0 0.0 2.63 4.11 0.00 79 1015.8
20260905151237 61 0.0 3.0 2.63 4.11 0.00 78 1015.8
20260905151137 61 0.0 3.0 2.63 4.11 0.00 81 1015.8
20260905151037 61 0.0 3.0 2.63 4.11 0.00 79 1015.8
20260905150937 61 1.0 3.0 2.63 4.11 0.00 77 1015.8
20260905150837 61 0.0 3.0 2.63 4.11 0.00 78 1015.7
20260905150737 62 1.0 3.0 2.63 4.11 0.00 78 1015.8
20260905150637 62 0.0 3.0 2.63 4.11 0.00 81 1015.7
20260905150538 61 0.0 0.0 2.63 4.11 0.00 80 1015.8
20260905150437 61 0.0 3.0 2.63 4.11 0.00 79 1176.9
20260905150337 61 0.0 3.0 2.63 4.11 0.00 78 1015.8
20260905150237 61 0.0 3.0 2.63 4.11 0.00 78 1015.8
20260905150137 62 0.0 3.0 2.63 4.11 0.00 80 1015.8
20260905150037 62 0.0 3.0 2.63 4.11 0.00 77 1015.7
20260905145937 62 0.0 3.0 2.63 4.11 0.00 76 1015.7
20260905145837 62 0.0 3.0 2.63 4.11 0.00 80 1015.7
20260905145737 62 0.0 0.0 2.63 4.11 0.00 82 1015.7
20260905145637 61 0.0 3.0 2.63 4.11 0.00 80 1015.7
20260905145537 61 0.0 3.0 2.63 4.11 0.00 81 1015.7
20260905145437 61 0.0 3.0 2.63 4.11 0.00 79 1015.7
20260905145337 61 1.0 6.0 2.63 4.11 0.00 79 1015.7
20260905145237 61 0.0 3.0 2.63 4.11 0.00 83 1015.7
20260905145137 61 0.0 0.0 2.63 4.11 0.00 82 1015.7
20260905145037 60 0.0 3.0 2.63 4.11 0.00 85 1015.7
20260905144937 60 0.0 3.0 2.63 4.11 0.00 82 1015.7
20260905144837 60 1.0 6.0 2.63 4.11 0.00 82 1572.4
20260905144737 60 0.0 3.0 2.63 4.11 0.00 83 1015.7
20260905144637 60 0.0 3.0 2.63 4.11 0.00 80 1015.8
20260905144537 61 0.0 3.0 2.63 4.11 0.00 85 1015.7
20260905144437 61 0.0 3.0 2.63 4.11 0.00 81 1015.8
20260905144337 60 0.0 6.0 2.63 4.11 0.00 80 1015.8
20260905144237 61 1.0 3.0 2.63 4.11 0.00 85 1015.8
20260905144137 61 1.0 3.0 2.63 4.11 0.00 85 1015.8
20260905144037 60 0.0 3.0 2.63 4.11 0.00 81 1015.8
20260905143937 60 1.0 3.0 2.63 4.11 0.00 84 1015.8
20260905143837 59 1.0 3.0 2.63 4.11 0.00 81 1015.7
20260905143737 59 1.0 6.0 2.63 4.11 0.00 84 1015.8
20260905143637 59 1.0 3.0 2.63 4.11 0.00 86 1015.8
20260905143537 58 1.0 3.0 2.63 4.11 0.00 89 1015.8
20260905143437 57 0.0 3.0 2.63 4.11 0.00 89 1015.8
20260905143337 57 0.0 3.0 2.63 4.11 0.00 89 1015.8
20260905143237 56 0.0 3.0 2.63 4.11 0.00 89 1015.8
20260905143137 56 0.0 3.0 2.63 4.11 0.00 88 1015.9
20260905143037 56 2.0 6.0 2.63 4.11 0.00 89 1015.9
20260905142937 56 2.0 6.0 2.63 4.11 0.00 88 1016.0
20260905142837 57 2.0 6.0 2.63 4.11 0.00 86 1016.0
20260905142737 57 2.0 6.0 1.77 4.02 0.00 85 1016.1
20260905142637 58 4.0 10.0 0.86 3.93 0.00 83 1016.2
20260905142537 58 4.0 10.0 0.86 3.93 0.00 81 1016.2
20260905142437 59 2.0 10.0 0.00 3.85 0.00 78 1016.2
20260905142337 59 4.0 6.0 0.00 3.85 0.00 78 1016.1
20260905142237 59 2.0 6.0 0.00 3.85 0.00 77 1016.0
20260905142137 60 2.0 10.0 0.00 3.85 0.00 76 1015.9
20260905142037 60 2.0 6.0 0.00 3.85 0.00 76 1015.8
20260905141937 60 2.0 6.0 0.00 3.85 0.00 73 1015.8
20260905141837 60 3.0 10.0 0.00 3.85 0.00 73 1015.9
20260905141737 60 2.0 6.0 0.00 3.85 0.00 72 1015.8
20260905141637 60 3.0 10.0 0.00 3.85 0.00 72 1015.9
20260905141537 61 4.0 10.0 0.00 3.85 0.00 72 1015.8
20260905141437 61 4.0 6.0 0.00 3.85 0.00 71 1015.8
20260905141337 62 2.0 6.0 0.00 3.85 0.00 71 1015.9
20260905141237 62 1.0 6.0 0.00 3.85 0.00 70 1015.8
20260905141137 63 3.0 6.0 0.00 3.85 0.00 67 1015.8
20260905141037 64 2.0 10.0 0.00 3.85 0.00 64 1015.8
20260905140937 65 3.0 6.0 0.00 3.85 0.00 62 1015.7
20260905140837 66 3.0 10.0 0.00 3.85 0.00 60 1015.7
20260905140737 67 3.0 6.0 0.00 3.85 0.00 58 1015.7
20260905140637 67 3.0 10.0 0.00 3.85 0.00 57 1015.7
20260905140537 67 3.0 13.0 0.00 3.85 0.00 57 1015.5
20260905140437 67 2.0 6.0 0.00 3.85 0.00 57 1015.4
20260905140337 66 4.0 13.0 0.00 3.85 0.00 58 760.2
20260905140237 66 6.0 23.0 0.00 3.85 0.00 58 1015.2
20260905140137 67 4.0 10.0 0.00 3.85 0.00 57 1015.2
20260905140037 67 5.0 16.0 0.00 3.85 0.00 57 1015.3
20260905135937 67 7.0 16.0 0.00 3.85 0.00 56 1015.2
20260905135837 68 6.0 23.0 0.00 3.85 0.00 56 1015.3
20260905135637 67 4.0 10.0 0.00 3.85 0.00 57 1015.3
20260905135537 67 6.0 16.0 0.00 3.85 0.00 57 1015.2
20260905135437 67 5.0 13.0 0.00 3.85 0.00 57 1015.2
20260905135337 67 7.0 20.0 0.00 3.85 0.00 56 1015.3
20260905135237 68 6.0 10.0 0.00 3.85 0.00 55 1015.3
20260905135137 68 5.0 13.0 0.00 3.85 0.00 53 1015.2
20260905135037 69 5.0 13.0 0.00 3.85 0.00 52 1015.2
20260905134937 69 6.0 13.0 0.00 3.85 0.00 53 1015.2
20260905134837 69 6.0 13.0 0.00 3.85 0.00 53 1015.2
20260905134737 69 4.0 13.0 0.00 3.85 0.00 55 1015.2
20260905134637 68 3.0 6.0 0.00 3.85 0.00 55 1015.2
20260905134537 68 4.0 13.0 0.00 3.85 0.00 53 1277.7
20260905134437 69 4.0 10.0 0.00 3.85 0.00 52 1015.1
20260905134337 70 4.0 10.0 0.00 3.85 0.00 52 1015.1
20260905134237 69 4.0 10.0 0.00 3.85 0.00 52 1015.2
20260905134137 69 4.0 10.0 0.00 3.85 0.00 52 1015.1
20260905134037 69 4.0 10.0 0.00 3.85 0.00 52 1015.1
20260905133937 69 4.0 10.0 0.00 3.85 0.00 53 1015.1
20260905133837 69 5.0 16.0 0.00 3.85 0.00 52 1015.1
20260905133737 69 6.0 13.0 0.00 3.85 0.00 53 1015.1
20260905133637 69 6.0 26.0 0.00 3.85 0.00 53 1015.1
20260905133537 69 6.0 16.0 0.00 3.85 0.00 52 1015.1
20260905133437 69 6.0 13.0 0.00 3.85 0.00 54 1015.1
20260905133337 68 4.0 16.0 0.00 3.85 0.00 55 1015.1
20260905133237 68 3.0 6.0 0.00 3.85 0.00 55 1015.0
20260905133137 67 2.0 10.0 0.00 3.85 0.00 56 1015.0
20260905133037 67 2.0 6.0 0.00 3.85 0.00 56 1015.0
20260905132937 67 2.0 6.0 0.00 3.85 0.00 55 1015.0
20260905132837 67 2.0 10.0 0.00 3.85 0.00 55 1015.0
20260905132737 66 4.0 16.0 0.00 3.85 0.00 55 1015.0
20260905132637 66 4.0 6.0 0.00 3.85 0.00 55 1015.0
20260905132537 66 4.0 10.0 0.00 3.85 0.00 55 1015.0
20260905132437 66 2.0 10.0 0.00 3.85 0.00 55 1015.0
20260905132337 66 5.0 13.0 0.00 3.85 0.00 55 1015.0
20260905132237 66 4.0 10.0 0.00 3.85 0.00 55 1015.1
20260905132137 66 4.0 10.0 0.00 3.85 0.00 55 1015.1
20260905132037 66 4.0 13.0 0.00 3.85 0.00 54 1015.1
20260905131937 66 6.0 13.0 0.00 3.85 0.00 55 1015.1
20260905131837 67 7.0 13.0 0.00 3.85 0.00 54 1011.0
20260905131737 67 4.0 13.0 0.00 3.85 0.00 53 1015.1
20260905131637 67 6.0 23.0 0.00 3.85 0.00 53 1015.0
20260905131537 68 7.0 10.0 0.00 3.85 0.00 52 1015.1
20260905131437 69 5.0 13.0 0.00 3.85 0.00 52 1015.1
20260905131337 68 6.0 10.0 0.00 3.85 0.00 52 1015.1
20260905131237 69 6.0 10.0 0.00 3.85 0.00 52 1015.1
20260905131137 69 4.0 16.0 0.00 3.85 0.00 51 1015.0
20260905131037 69 3.0 6.0 0.00 3.85 0.00 52 1015.0
20260905130937 69 5.0 10.0 0.00 3.85 0.00 51 1015.1
20260905130837 70 3.0 10.0 0.00 3.85 0.00 51 1015.1
20260905130737 71 5.0 13.0 0.00 3.85 0.00 50 1015.0
20260905130637 70 1.0 6.0 0.00 3.85 0.00 53 1015.1
20260905130537 70 1.0 10.0 0.00 3.85 0.00 52 1015.0
20260905130437 70 4.0 10.0 0.00 3.85 0.00 53 1015.1
20260905130337 69 2.0 6.0 0.00 3.85 0.00 51 1015.1
20260905130237 69 5.0 20.0 0.00 3.85 0.00 52 1015.1
20260905130137 69 6.0 13.0 0.00 3.85 0.00 52 1015.0
20260905130037 70 5.0 10.0 0.00 3.85 0.00 54 1029.0
20260905125937 69 4.0 10.0 0.00 3.85 0.00 52 1015.1
20260905125837 69 3.0 6.0 0.00 3.85 0.00 52 1015.1
20260905125737 69 4.0 13.0 0.00 3.85 0.00 52 1015.0
20260905125637 69 5.0 10.0 0.00 3.85 0.00 51 1015.1
20260905125537 69 4.0 10.0 0.00 3.85 0.00 53 1015.1
20260905125437 68 2.0 13.0 0.00 3.85 0.00 52 1015.1
20260905125337 69 5.0 13.0 0.00 3.85 0.00 53 1015.1
20260905125237 68 4.0 6.0 0.00 3.85 0.00 52 1015.2
20260905125137 68 7.0 16.0 0.00 3.85 0.00 51 1015.1
20260905125037 68 8.0 20.0 0.00 3.85 0.00 51 1015.2
20260905124937 68 6.0 13.0 0.00 3.85 0.00 51 1015.2
20260905124837 68 6.0 10.0 0.00 3.85 0.00 51 1015.2
20260905124737 68 6.0 23.0 0.00 3.85 0.00 51 1015.2
20260905124637 69 6.0 10.0 0.00 3.85 0.00 52 1015.2
20260905124537 69 4.0 10.0 0.00 3.85 0.00 52 1015.2
20260905124437 69 4.0 10.0 0.00 3.85 0.00 52 1015.1
20260905124337 69 4.0 10.0 0.00 3.85 0.00 52 1015.2
20260905124237 68 4.0 10.0 0.00 3.85 0.00 52 1015.2
20260905124137 68 4.0 13.0 0.00 3.85 0.00 51 1015.2
20260905124037 68 4.0 13.0 0.00 3.85 0.00 51 1015.2
20260905123937 69 6.0 13.0 0.00 3.85 0.00 50 1015.3
20260905123837 69 4.0 10.0 0.00 3.85 0.00 52 1015.2
20260905123737 68 4.0 16.0 0.00 3.85 0.00 51 1015.2
20260905123637 68 5.0 10.0 0.00 3.85 0.00 52 1015.2
20260905123537 68 4.0 13.0 0.00 3.85 0.00 53 1015.3
20260905123437 67 5.0 13.0 0.00 3.85 0.00 54 1015.3
20260905123337 67 6.0 13.0 0.00 3.85 0.00 53 1015.3
20260905123237 67 5.0 20.0 0.00 3.85 0.00 55 1015.3
20260905123137 66 7.0 134.0 0.00 3.85 0.00 56 1015.4
20260905123037 67 5.0 16.0 0.00 3.85 0.00 55 1015.3
20260905122937 67 5.0 16.0 0.00 3.85 0.00 53 1015.3
20260905122837 68 7.0 16.0 0.00 3.85 0.00 54 1015.3
20260905122737 68 5.0 10.0 0.00 3.85 0.00 54 1114.0
20260905122637 68 1.0 10.0 0.00 3.85 0.00 54 1015.4
20260905122537 68 6.0 13.0 0.00 3.85 0.00 53 1015.3
20260905122437 68 6.0 13.0 0.00 3.85 0.00 53 1015.3
20260905122337 68 5.0 10.0 0.00 3.85 0.00 53 1015.4
20260905122237 69 5.0 13.0 0.00 3.85 0.00 53 1015.3
20260905122137 68 4.0 10.0 0.00 3.85 0.00 53 1015.2
20260905122037 68 6.0 13.0 0.00 3.85 0.00 53 1015.2
20260905121937 68 6.0 13.0 0.00 3.85 0.00 54 1015.2
20260905121837 67 5.0 13.0 0.00 3.85 0.00 54 1015.3
20260905121737 67 8.0 20.0 0.00 3.85 0.00 55 1015.4
20260905121637 67 9.0 26.0 0.00 3.85 0.00 54 1015.4
20260905121537 68 11.0 16.0 0.00 3.85 0.00 53 1015.3
20260905121437 69 6.0 13.0 0.00 3.85 0.00 53 1015.4
20260905121337 68 3.0 6.0 0.00 3.85 0.00 53 1015.3
20260905121237 68 6.0 13.0 0.00 3.85 0.00 53 1015.3
20260905121137 69 6.0 16.0 0.00 3.85 0.00 52 1015.3
20260905121037 69 6.0 20.0 0.00 3.85 0.00 52 1015.3
20260905120937 69 6.0 20.0 0.00 3.85 0.00 52 1015.3
20260905120837 68 4.0 13.0 0.00 3.85 0.00 54 1015.3
20260905120737 68 6.0 16.0 0.00 3.85 0.00 53 1015.3
20260905120637 68 9.0 13.0 0.00 3.85 0.00 55 1015.3
20260905120537 68 6.0 16.0 0.00 3.85 0.00 53 1015.3
20260905120437 68 6.0 10.0 0.00 3.85 0.00 54 1015.4
20260905120337 68 7.0 26.0 0.00 3.85 0.00 53 1015.4
20260905120237 69 8.0 16.0 0.00 3.85 0.00 53 1015.4
20260905120137 68 5.0 13.0 0.00 3.85 0.00 54 1015.3
20260905120037 68 6.0 16.0 0.00 3.85 0.00 55 1015.3
20260905115937 68 3.0 16.0 0.00 3.85 0.00 54 1015.3
20260905115837 68 5.0 10.0 0.00 3.85 0.00 55 1015.2
20260905115637 68 6.0 26.0 0.00 3.85 0.00 54 1015.2
20260905115537 68 6.0 23.0 0.00 3.85 0.00 54 1015.2
20260905115437 68 6.0 16.0 0.00 3.85 0.00 54 1015.3
20260905115337 68 7.0 26.0 0.00 3.85 0.00 53 1015.3
20260905115237 68 8.0 20.0 0.00 3.85 0.00 53 1015.3
20260905115137 68 7.0 20.0 0.00 3.85 0.00 53 1015.3
20260905115037 67 6.0 13.0 0.00 3.85 0.00 55 1015.2
20260905114937 68 7.0 16.0 0.00 3.85 0.00 54 1015.2
20260905114837 70 6.0 13.0 0.00 3.85 0.00 53 1015.2
20260905114737 69 3.0 6.0 0.00 3.85 0.00 53 1015.3
20260905114637 68 3.0 6.0 0.00 3.85 0.00 54 1015.2
20260905114537 67 2.0 10.0 0.00 3.85 0.00 54 1015.3
20260905114438 66 5.0 13.0 0.00 3.85 0.00 55 1015.2
20260905114337 66 7.0 20.0 0.00 3.85 0.00 55 1015.2
20260905114237 66 10.0 16.0 0.00 3.85 0.00 57 1015.3
20260905114137 65 7.0 13.0 0.00 3.85 0.00 57 1015.3
20260905114037 65 5.0 13.0 0.00 3.85 0.00 56 1015.3
20260905113937 66 8.0 16.0 0.00 3.85 0.00 56 1015.3
20260905113837 66 6.0 13.0 0.00 3.85 0.00 56 1015.4
20260905113737 67 6.0 13.0 0.00 3.85 0.00 56 1015.3
20260905113637 67 4.0 13.0 0.00 3.85 0.00 55 1015.3
20260905113537 67 5.0 10.0 0.00 3.85 0.00 56 1015.3
20260905113437 66 4.0 13.0 0.00 3.85 0.00 56 1015.2
20260905113337 66 5.0 13.0 0.00 3.85 0.00 56 1015.2
20260905113237 67 7.0 20.0 0.00 3.85 0.00 54 1015.2
20260905113137 68 8.0 26.0 0.00 3.85 0.00 54 1015.2
20260905113037 68 6.0 13.0 0.00 3.85 0.00 54 1015.2
20260905112937 68 6.0 13.0 0.00 3.85 0.00 55 1015.2
20260905112837 68 3.0 13.0 0.00 3.85 0.00 55 1015.2
20260905112737 67 4.0 6.0 0.00 3.85 0.00 54 1015.2
20260905112637 67 5.0 10.0 0.00 3.85 0.00 55 1015.2
20260905112537 67 9.0 23.0 0.00 3.85 0.00 54 1015.3
20260905112437 67 7.0 16.0 0.00 3.85 0.00 56 1015.4
20260905112337 66 4.0 20.0 0.00 3.85 0.00 56 1015.3
20260905112237 66 9.0 23.0 0.00 3.85 0.00 57 1015.3
20260905112137 66 6.0 13.0 0.00 3.85 0.00 58 1015.3
20260905112037 66 6.0 13.0 0.00 3.85 0.00 58 1015.3
20260905111937 66 4.0 13.0 0.00 3.85 0.00 58 1015.1
20260905111837 66 4.0 10.0 0.00 3.85 0.00 58 1015.2
20260905111737 66 6.0 20.0 0.00 3.85 0.00 58 1015.2
20260905111637 66 8.0 13.0 0.00 3.85 0.00 57 1015.2
20260905111537 67 8.0 16.0 0.00 3.85 0.00 57 1015.1
20260905111437 67 8.0 16.0 0.00 3.85 0.00 56 1015.1
20260905111337 68 8.0 13.0 0.00 3.85 0.00 56 1015.2
20260905111237 68 4.0 10.0 0.00 3.85 0.00 55 1015.2
20260905111137 68 4.0 13.0 0.00 3.85 0.00 56 1015.1
20260905111037 68 6.0 16.0 0.00 3.85 0.00 55 1015.1
20260905110937 68 6.0 16.0 0.00 3.85 0.00 55 1015.1
20260905110837 68 6.0 13.0 0.00 3.85 0.00 55 1015.1
20260905110737 67 4.0 10.0 0.00 3.85 0.00 54 1015.1
20260905110637 68 6.0 16.0 0.00 3.85 0.00 53 1015.1
20260905110537 68 5.0 10.0 0.00 3.85 0.00 54 1015.1
20260905110437 68 4.0 10.0 0.00 3.85 0.00 56 1015.2
20260905110337 67 4.0 13.0 0.00 3.85 0.00 55 1015.1
20260905110237 67 6.0 13.0 0.00 3.85 0.00 56 1015.1
20260905110137 67 8.0 23.0 0.00 3.85 0.00 55 1015.2
20260905110037 67 7.0 16.0 0.00 3.85 0.00 55 1015.2
20260905105937 67 6.0 13.0 0.00 3.85 0.00 55 1015.1
20260905105837 68 8.0 16.0 0.00 3.85 0.00 58 1563.8
20260905105737 67 4.0 10.0 0.00 3.85 0.00 56 1015.2
20260905105637 67 6.0 13.0 0.00 3.85 0.00 56 1015.1
20260905105537 67 5.0 10.0 0.00 3.85 0.00 56 1015.1
20260905105437 67 6.0 16.0 0.00 3.85 0.00 55 1015.1
20260905105337 67 3.0 16.0 0.00 3.85 0.00 56 1015.1
20260905105237 66 6.0 23.0 0.00 3.85 0.00 56 1015.1
20260905105137 66 7.0 20.0 0.00 3.85 0.00 57 1015.1
20260905105037 67 8.0 20.0 0.00 3.85 0.00 57 1015.2
20260905104937 66 7.0 16.0 0.00 3.85 0.00 57 1015.1
20260905104837 66 6.0 16.0 0.00 3.85 0.00 58 1015.2
20260905104737 66 5.0 13.0 0.00 3.85 0.00 57 1015.2
20260905104637 67 5.0 10.0 0.00 3.85 0.00 59 1015.2
20260905104537 66 5.0 16.0 0.00 3.85 0.00 58 1015.2
20260905104437 66 7.0 13.0 0.00 3.85 0.00 59 1015.1
20260905104337 65 3.0 10.0 0.00 3.85 0.00 59 1015.2
20260905104237 66 9.0 16.0 0.00 3.85 0.00 59 1015.1
20260905104137 66 4.0 10.0 0.00 3.85 0.00 60 1015.3
20260905104037 65 3.0 6.0 0.00 3.85 0.00 59 1282.1
20260905103937 66 8.0 16.0 0.00 3.85 0.00 61 1015.2
20260905103837 66 3.0 10.0 0.00 3.85 0.00 62 1015.2
20260905103737 65 5.0 23.0 0.00 3.85 0.00 59 1015.1
20260905103637 65 8.0 16.0 0.00 3.85 0.00 60 1015.1
20260905103537 65 8.0 23.0 0.00 3.85 0.00 61 1015.2
20260905103437 66 9.0 16.0 0.00 3.85 0.00 61 1015.1
20260905103337 65 4.0 13.0 0.00 3.85 0.00 60 1015.1
20260905103237 65 8.0 16.0 0.00 3.85 0.00 60 1015.1
20260905103137 65 6.0 10.0 0.00 3.85 0.00 60 1015.0
20260905103037 65 8.0 23.0 0.00 3.85 0.00 58 1015.0
20260905102937 66 8.0 20.0 0.00 3.85 0.00 57 1015.1
20260905102837 66 6.0 13.0 0.00 3.85 0.00 57 1015.1
20260905102737 66 5.0 10.0 0.00 3.85 0.00 58 1015.1
20260905102637 66 10.0 30.0 0.00 3.85 0.00 58 1280.4
20260905102537 66 4.0 13.0 0.00 3.85 0.00 59 1014.9
20260905102437 65 7.0 16.0 0.00 3.85 0.00 59 1015.0
20260905102337 66 9.0 20.0 0.00 3.85 0.00 59 1015.0
20260905102237 66 8.0 16.0 0.00 3.85 0.00 60 1015.0
20260905102137 66 4.0 10.0 0.00 3.85 0.00 61 1282.2
20260905102037 66 9.0 16.0 0.00 3.85 0.00 61 1280.0
20260905101937 66 5.0 16.0 0.00 3.85 0.00 63 1015.0
20260905101837 65 3.0 6.0 0.00 3.85 0.00 64 1015.0
20260905101737 65 5.0 10.0 0.00 3.85 0.00 64 1015.0
20260905101637 65 2.0 6.0 0.00 3.85 0.00 66 1014.9
20260905101537 65 2.0 10.0 0.00 3.85 0.00 64 1014.9
20260905101437 65 5.0 13.0 0.00 3.85 0.00 64 1015.0
20260905101337 66 7.0 13.0 0.00 3.85 0.00 62 1014.9
20260905101237 66 4.0 16.0 0.00 3.85 0.00 62 1014.9
20260905101137 65 7.0 20.0 0.00 3.85 0.00 63 1014.8
20260905100837 65 7.0 13.0 0.00 3.85 0.00 64 1015.0
20260905100737 64 4.0 13.0 0.00 3.85 0.00 64 1014.8
20260905100637 64 6.0 16.0 0.00 3.85 0.00 67 1014.8
20260905100537 64 4.0 13.0 0.00 3.85 0.00 67 1014.8
20260905100436 64 4.0 10.0 0.00 3.85 0.00 67 1280.1
20260905100336 64 4.0 16.0 0.00 3.85 0.00 66 1014.8
20260905100237 63 6.0 10.0 0.00 3.85 0.00 66 1014.8
20260905100137 63 7.0 16.0 0.00 3.85 0.00 67 1014.7
20260905100037 63 7.0 13.0 0.00 3.85 0.00 67 1014.8
20260905095937 63 6.0 13.0 0.00 3.85 0.00 67 1014.7
20260905095837 63 6.0 13.0 0.00 3.85 0.00 66 1014.7
20260905095737 64 7.0 16.0 0.00 3.85 0.00 65 1014.7
20260905095637 65 5.0 13.0 0.00 3.85 0.00 65 1014.7
20260905095537 65 4.0 6.0 0.00 3.85 0.00 65 1014.7
20260905095437 65 3.0 13.0 0.00 3.85 0.00 65 1014.8
20260905095337 64 7.0 20.0 0.00 3.85 0.00 65 1014.7
20260905095237 63 5.0 10.0 0.00 3.85 0.00 67 1014.7
20260905095137 63 5.0 13.0 0.00 3.85 0.00 66 1014.7
20260905095037 63 7.0 13.0 0.00 3.85 0.00 67 1014.7
20260905094937 63 4.0 10.0 0.00 3.85 0.00 67 1014.8
20260905094837 64 6.0 16.0 0.00 3.85 0.00 67 1014.7
20260905094737 64 6.0 13.0 0.00 3.85 0.00 66 1014.7
20260905094637 64 6.0 10.0 0.00 3.85 0.00 66 1014.7
20260905094537 64 7.0 13.0 0.00 3.85 0.00 66 1014.7
20260905094437 64 8.0 16.0 0.00 3.85 0.00 66 1014.7
20260905094337 64 6.0 16.0 0.00 3.85 0.00 65 1014.8
20260905094237 64 6.0 16.0 0.00 3.85 0.00 65 1014.7
20260905094137 64 6.0 10.0 0.00 3.85 0.00 66 1014.7
20260905094037 64 5.0 13.0 0.00 3.85 0.00 66 1014.7
20260905093937 64 7.0 16.0 0.00 3.85 0.00 68 1014.7
20260905093837 64 6.0 10.0 0.00 3.85 0.00 67 1014.7
20260905093737 65 6.0 13.0 0.00 3.85 0.00 67 1014.6
20260905093637 65 3.0 16.0 0.00 3.85 0.00 66 1014.7
20260905093536 65 3.0 6.0 0.00 3.85 0.00 68 1280.0
20260905093437 64 4.0 10.0 0.00 3.85 0.00 68 1014.7
20260905093337 64 6.0 13.0 0.00 3.85 0.00 68 1014.6
20260905093237 63 5.0 10.0 0.00 3.85 0.00 69 1014.6
20260905093137 63 7.0 16.0 0.00 3.85 0.00 68 1014.7
20260905093037 62 6.0 13.0 0.00 3.85 0.00 68 1014.7
20260905092937 63 7.0 16.0 0.00 3.85 0.00 69 1014.7
20260905092836 62 6.0 16.0 0.00 3.85 0.00 69 1014.7
20260905092737 63 8.0 16.0 0.00 3.85 0.00 68 1014.7
20260905092637 63 8.0 16.0 0.00 3.85 0.00 68 1014.7
20260905092537 63 8.0 13.0 0.00 3.85 0.00 68 1014.7
20260905092437 63 6.0 13.0 0.00 3.85 0.00 70 1014.8
20260905092337 62 5.0 13.0 0.00 3.85 0.00 70 1014.8
20260905092237 62 8.0 16.0 0.00 3.85 0.00 70 1014.7
20260905092137 63 8.0 16.0 0.00 3.85 0.00 72 1014.8
20260905092037 63 6.0 16.0 0.00 3.85 0.00 72 1014.6
20260905091936 63 6.0 16.0 0.00 3.85 0.00 71 1014.8
20260905091837 63 7.0 13.0 0.00 3.85 0.00 71 1014.7
20260905091737 63 7.0 20.0 0.00 3.85 0.00 70 1014.7
20260905091636 63 6.0 13.0 0.00 3.85 0.00 71 1014.6
20260905091537 63 6.0 10.0 0.00 3.85 0.00 71 1014.7
20260905091437 62 4.0 10.0 0.00 3.85 0.00 71 1014.6
20260905091337 63 6.0 13.0 0.00 3.85 0.00 71 1014.6
20260905091237 63 4.0 13.0 0.00 3.85 0.00 71 1014.7
20260905091037 63 6.0 13.0 0.00 3.85 0.00 70 975.1
20260905090936 64 6.0 10.0 0.00 3.85 0.00 69 1279.6
20260905090836 64 6.0 10.0 0.00 3.85 0.00 69 1279.4
20260905090737 64 5.0 10.0 0.00 3.85 0.00 68 1014.6
20260905090637 64 3.0 6.0 0.00 3.85 0.00 68 1014.6
20260905090536 65 6.0 10.0 0.00 3.85 0.00 66 1013.4
20260905090337 65 7.0 13.0 0.00 3.85 0.00 67 1014.5
20260905090237 64 4.0 10.0 0.00 3.85 0.00 67 1014.5
20260905090137 64 6.0 26.0 0.00 3.85 0.00 66 1014.5
20260905090037 64 6.0 10.0 0.00 3.85 0.00 67 1014.5
20260905085937 64 4.0 16.0 0.00 3.85 0.00 67 1014.5
20260905085836 63 4.0 10.0 0.00 3.85 0.00 68 1014.5
20260905085737 64 8.0 13.0 0.00 3.85 0.00 67 1014.6
20260905085636 64 5.0 13.0 0.00 3.85 0.00 66 1014.5
20260905085537 65 5.0 13.0 0.00 3.85 0.00 67 1014.5
20260905085437 65 7.0 20.0 0.00 3.85 0.00 66 1014.5
20260905085336 65 4.0 13.0 0.00 3.85 0.00 67 1014.5
20260905085237 65 5.0 13.0 0.00 3.85 0.00 67 1014.5
20260905085136 64 5.0 16.0 0.00 3.85 0.00 66 1014.5
20260905085037 64 6.0 10.0 0.00 3.85 0.00 66 759.4
20260905084937 64 6.0 40.0 0.00 3.85 0.00 66 1014.6
20260905084837 64 7.0 13.0 0.00 3.85 0.00 67 1014.6
20260905084737 63 9.0 20.0 0.00 3.85 0.00 67 1014.5
20260905084637 63 7.0 13.0 0.00 3.85 0.00 67 1014.6
20260905084537 63 5.0 10.0 0.00 3.85 0.00 68 1014.6
20260905084437 63 5.0 10.0 0.00 3.85 0.00 67 1014.5
20260905084337 63 5.0 16.0 0.00 3.85 0.00 66 1281.1
20260905084236 64 6.0 16.0 0.00 3.85 0.00 68 1279.2
20260905084137 64 7.0 13.0 0.00 3.85 0.00 70 1014.6
20260905084036 64 3.0 6.0 0.00 3.85 0.00 69 1014.4
20260905083936 64 4.0 10.0 0.00 3.85 0.00 69 1014.4
20260905083836 64 6.0 16.0 0.00 3.85 0.00 68 1014.4
20260905083636 65 2.0 6.0 0.00 3.85 0.00 67 1279.1
20260905083537 65 4.0 10.0 0.00 3.85 0.00 68 1280.8
20260905083436 65 3.0 10.0 0.00 3.85 0.00 69 759.2
20260905083337 64 3.0 13.0 0.00 3.85 0.00 70 1014.2
20260905083236 65 7.0 13.0 0.00 3.85 0.00 70 1014.3
20260905083137 65 5.0 16.0 0.00 3.85 0.00 68 1014.3
20260905083037 65 6.0 100.0 0.00 3.85 0.00 68 1014.4
20260905082836 65 5.0 13.0 0.00 3.85 0.00 70 1279.1
20260905082736 65 5.0 10.0 0.00 3.85 0.00 70 1279.2
20260905082636 64 3.0 6.0 0.00 3.85 0.00 71 1279.1
20260905082536 64 5.0 13.0 0.00 3.85 0.00 70 1279.0
20260905082437 64 5.0 13.0 0.00 3.85 0.00 72 1014.2
20260905082337 63 2.0 6.0 0.00 3.85 0.00 73 1014.2
20260905082237 63 5.0 16.0 0.00 3.85 0.00 72 1014.2
20260905082136 63 6.0 13.0 0.00 3.85 0.00 72 840.1
20260905082037 63 6.0 10.0 0.00 3.85 0.00 70 1254.7
20260905081937 64 6.0 16.0 0.00 3.85 0.00 71 1014.2
20260905081836 64 4.0 10.0 0.00 3.85 0.00 71 1014.2
20260905081737 65 4.0 10.0 0.00 3.85 0.00 71 1014.2
20260905081636 65 4.0 6.0 0.00 3.85 0.00 71 1014.2
20260905081536 65 4.0 10.0 0.00 3.85 0.00 72 1014.2
20260905081437 64 3.0 10.0 0.00 3.85 0.00 72 1014.2
20260905081337 64 4.0 10.0 0.00 3.85 0.00 73 1014.3
20260905081237 63 4.0 10.0 0.00 3.85 0.00 73 1014.3
20260905081136 63 5.0 23.0 0.00 3.85 0.00 73 759.3
20260905081037 63 4.0 13.0 0.00 3.85 0.00 73 1014.2
20260905080937 63 5.0 16.0 0.00 3.85 0.00 74 1014.4
20260905080837 63 7.0 13.0 0.00 3.85 0.00 73 1014.4
20260905080736 63 5.0 10.0 0.00 3.85 0.00 74 1014.4
20260905080637 62 6.0 13.0 0.00 3.85 0.00 73 1014.4
20260905080537 62 7.0 13.0 0.00 3.85 0.00 74 1014.4
20260905080437 62 7.0 13.0 0.00 3.85 0.00 76 1014.5
20260905080337 62 5.0 16.0 0.00 3.85 0.00 76 1014.4
20260905080237 62 7.0 16.0 0.00 3.85 0.00 75 1014.3
20260905080137 62 8.0 13.0 0.00 3.85 0.00 75 1014.4
20260905080037 63 7.0 16.0 0.00 3.85 0.00 75 1014.3
20260905075936 63 6.0 16.0 0.00 3.85 0.00 75 1014.4
20260905075836 63 6.0 13.0 0.00 3.85 0.00 75 1014.3
20260905075736 63 3.0 10.0 0.00 3.85 0.00 75 1014.2
20260905075636 63 2.0 6.0 0.00 3.85 0.00 75 1014.0
20260905075536 63 4.0 10.0 0.00 3.85 0.00 75 1014.2
20260905075437 63 7.0 23.0 0.00 3.85 0.00 74 1014.0
20260905075337 64 7.0 13.0 0.00 3.85 0.00 75 1014.2
20260905075237 64 5.0 10.0 0.00 3.85 0.00 75 1014.2
20260905075137 63 3.0 6.0 0.00 3.85 0.00 75 1014.2
20260905075037 63 4.0 6.0 0.00 3.85 0.00 74 1014.0
20260905074937 63 6.0 20.0 0.00 3.85 0.00 73 1014.0
20260905074836 63 8.0 16.0 0.00 3.85 0.00 74 1014.0
20260905074736 63 4.0 10.0 0.00 3.85 0.00 75 1014.0
20260905074636 63 4.0 10.0 0.00 3.85 0.00 74 1014.0
20260905074536 63 5.0 23.0 0.00 3.85 0.00 73 1014.0
20260905074436 63 3.0 13.0 0.00 3.85 0.00 73 1014.0
20260905074337 63 4.0 10.0 0.00 3.85 0.00 76 1014.0
20260905074236 62 4.0 13.0 0.00 3.85 0.00 75 1014.2
20260905074137 63 6.0 13.0 0.00 3.85 0.00 75 1014.0
20260905074036 63 4.0 6.0 0.00 3.85 0.00 76 1014.0
20260905073937 63 4.0 10.0 0.00 3.85 0.00 75 1013.9
20260905073836 63 4.0 10.0 0.00 3.85 0.00 75 1013.9
20260905073736 63 4.0 10.0 0.00 3.85 0.00 75 1013.9
20260905073636 63 3.0 6.0 0.00 3.85 0.00 75 1013.9
20260905073536 63 3.0 6.0 0.00 3.85 0.00 76 1013.9
20260905073436 63 5.0 20.0 0.00 3.85 0.00 75 1013.8
20260905073336 63 4.0 10.0 0.00 3.85 0.00 76 1279.1
20260905073236 62 4.0 10.0 0.00 3.85 0.00 75 1013.8
20260905073136 63 4.0 10.0 0.00 3.85 0.00 76 1013.8
20260905073036 63 6.0 13.0 0.00 3.85 0.00 77 1013.8
20260905072936 62 3.0 10.0 0.00 3.85 0.00 77 1013.8
20260905072837 62 4.0 10.0 0.00 3.85 0.00 77 1013.8
20260905072736 62 5.0 16.0 0.00 3.85 0.00 77 1013.8
20260905072636 62 8.0 16.0 0.00 3.85 0.00 77 1013.8
20260905072536 62 5.0 13.0 0.00 3.85 0.00 77 1013.8
20260905072436 63 4.0 13.0 0.00 3.85 0.00 77 1013.8
20260905072336 62 3.0 6.0 0.00 3.85 0.00 77 1013.8
20260905072236 62 3.0 6.0 0.00 3.85 0.00 77 1013.8
20260905072136 62 4.0 13.0 0.00 3.85 0.00 77 1013.8
20260905072036 62 4.0 13.0 0.00 3.85 0.00 78 1013.9
20260905071936 62 7.0 16.0 0.00 3.85 0.00 78 1013.9
20260905071836 61 5.0 16.0 0.00 3.85 0.00 79 1013.9
20260905071736 61 5.0 13.0 0.00 3.85 0.00 79 1013.8
20260905071636 61 6.0 20.0 0.00 3.85 0.00 78 1013.8
20260905071536 61 6.0 13.0 0.00 3.85 0.00 79 1013.8
20260905071436 62 5.0 10.0 0.00 3.85 0.00 79 1013.8
20260905071336 61 4.0 13.0 0.00 3.85 0.00 79 1013.8
20260905071236 61 3.0 6.0 0.00 3.85 0.00 80 1013.8
20260905071136 61 3.0 13.0 0.00 3.85 0.00 80 1013.8
20260905071036 61 5.0 10.0 0.00 3.85 0.00 81 1013.8
20260905070936 61 5.0 10.0 0.00 3.85 0.00 81 1013.8
20260905070836 61 5.0 10.0 0.00 3.85 0.00 80 1013.7
20260905070737 61 5.0 10.0 0.00 3.85 0.00 80 1013.8
20260905070637 61 5.0 13.0 0.00 3.85 0.00 80 1013.7
20260905070536 61 6.0 16.0 0.00 3.85 0.00 81 1278.7
20260905070437 61 5.0 13.0 0.00 3.85 0.00 80 1013.7
20260905070336 61 6.0 13.0 0.00 3.85 0.00 79 1013.7
20260905070236 62 5.0 10.0 0.00 3.85 0.00 79 1013.6
20260905070136 62 3.0 10.0 0.00 3.85 0.00 80 1013.6
20260905070036 61 2.0 3.0 0.00 3.85 0.00 80 1013.6
20260905065937 61 2.0 10.0 0.00 3.85 0.00 80 1013.6
20260905065837 61 6.0 20.0 0.00 3.85 0.00 80 1013.6
20260905065736 61 4.0 10.0 0.00 3.85 0.00 80 1013.6
20260905065637 61 7.0 13.0 0.00 3.85 0.00 80 1013.5
20260905065537 61 6.0 13.0 0.00 3.85 0.00 81 1013.5
20260905065437 61 5.0 10.0 0.00 3.85 0.00 82 1013.6
20260905065336 61 2.0 10.0 0.00 3.85 0.00 81 1013.5
20260905065236 61 3.0 10.0 0.00 3.85 0.00 81 1013.5
20260905065136 61 3.0 6.0 0.00 3.85 0.00 81 1013.6
20260905065036 61 3.0 6.0 0.00 3.85 0.00 81 1013.5
20260905064936 60 3.0 6.0 0.00 3.85 0.00 82 1013.5
20260905064836 60 3.0 6.0 0.00 3.85 0.00 82 1013.4
20260905064736 60 4.0 10.0 0.00 3.85 0.00 81 1280.1
20260905064636 60 7.0 10.0 0.00 3.85 0.00 81 1013.4
20260905064536 60 4.0 10.0 0.00 3.85 0.00 81 1013.4
20260905064436 61 5.0 10.0 0.00 3.85 0.00 81 1013.4
20260905064336 61 3.0 6.0 0.00 3.85 0.00 81 1013.4
20260905064236 60 2.0 6.0 0.00 3.85 0.00 80 1013.4
20260905064136 61 5.0 16.0 0.00 3.85 0.00 80 1013.3
20260905064036 61 5.0 13.0 0.00 3.85 0.00 79 1013.3
20260905063936 61 5.0 10.0 0.00 3.85 0.00 78 1013.3
20260905063836 61 6.0 16.0 0.00 3.85 0.00 78 1013.2
20260905063736 61 5.0 13.0 0.00 3.85 0.00 78 1013.3
20260905063636 61 5.0 13.0 0.00 3.85 0.00 78 1013.3
20260905063536 61 7.0 13.0 0.00 3.85 0.00 78 1013.2
20260905063436 61 4.0 10.0 0.00 3.85 0.00 80 1013.3
20260905063336 61 3.0 10.0 0.00 3.85 0.00 81 1013.2
20260905063236 61 2.0 10.0 0.00 3.85 0.00 81 1013.3
20260905063136 60 2.0 6.0 0.00 3.85 0.00 80 1013.3
20260905063036 61 3.0 10.0 0.00 3.85 0.00 81 1013.3
20260905062936 61 4.0 10.0 0.00 3.85 0.00 80 1013.2
20260905062836 61 3.0 6.0 0.00 3.85 0.00 80 1013.2
20260905062736 61 6.0 16.0 0.00 3.85 0.00 80 1013.3
20260905062636 61 5.0 10.0 0.00 3.85 0.00 80 1013.2
20260905062536 61 2.0 6.0 0.00 3.85 0.00 80 1013.2
20260905062436 60 6.0 13.0 0.00 3.85 0.00 81 1013.2
20260905062336 60 5.0 10.0 0.00 3.85 0.00 81 1013.2
20260905062236 60 3.0 10.0 0.00 3.85 0.00 81 1013.2
20260905062136 60 4.0 13.0 0.00 3.85 0.00 81 1013.1
20260905062036 61 7.0 13.0 0.00 3.85 0.00 81 1013.1
20260905061936 61 3.0 10.0 0.00 3.85 0.00 81 1013.2
20260905061836 61 4.0 10.0 0.00 3.85 0.00 81 1013.1
20260905061736 61 4.0 10.0 0.00 3.85 0.00 81 1013.2
20260905061636 61 3.0 10.0 0.00 3.85 0.00 80 1013.1
20260905061536 61 4.0 13.0 0.00 3.85 0.00 80 1013.1
20260905061436 60 4.0 16.0 0.00 3.85 0.00 81 1013.2
20260905061336 60 5.0 23.0 0.00 3.85 0.00 81 1013.1
20260905061236 60 7.0 13.0 0.00 3.85 0.00 81 1013.1
20260905061136 61 5.0 13.0 0.00 3.85 0.00 82 1013.1
20260905061036 61 5.0 10.0 0.00 3.85 0.00 81 1013.0
20260905060936 61 4.0 10.0 0.00 3.85 0.00 82 1013.0
20260905060836 61 4.0 10.0 0.00 3.85 0.00 82 1013.1
20260905060736 61 4.0 10.0 0.00 3.85 0.00 81 1013.0
20260905060636 61 3.0 10.0 0.00 3.85 0.00 81 1013.0
20260905060536 61 4.0 10.0 0.00 3.85 0.00 81 1013.0
20260905060436 61 6.0 13.0 0.00 3.85 0.00 81 1013.0
20260905060336 61 4.0 10.0 0.00 3.85 0.00 81 1013.0
20260905060236 61 6.0 23.0 0.00 3.85 0.00 83 1013.0
20260905060136 61 6.0 13.0 0.00 3.85 0.00 83 1013.0
20260905060036 60 3.0 6.0 0.00 3.85 0.00 83 1013.0
20260905055936 60 5.0 13.0 0.00 3.85 0.00 84 1012.9
20260905055836 60 7.0 13.0 0.00 3.85 0.00 84 1012.9
20260905055736 60 6.0 13.0 0.00 3.85 0.00 84 1012.9
20260905055636 60 6.0 13.0 0.00 3.85 0.00 84 1012.9
20260905055536 61 4.0 13.0 0.00 3.85 0.00 84 1012.9
20260905055436 61 4.0 10.0 0.00 3.85 0.00 84 1012.9
20260905055336 61 4.0 13.0 0.00 3.85 0.00 84 1012.9
20260905055236 61 5.0 10.0 0.00 3.85 0.00 84 1012.9
20260905055136 60 3.0 10.0 0.00 3.85 0.00 84 1012.9
20260905055036 60 3.0 6.0 0.00 3.85 0.00 84 1012.9
20260905054936 60 5.0 13.0 0.00 3.85 0.00 85 1012.9
20260905054836 60 4.0 10.0 0.00 3.85 0.00 84 1012.8
20260905054736 60 5.0 10.0 0.00 3.85 0.00 84 1012.9
20260905054636 60 4.0 6.0 0.00 3.85 0.00 84 1012.8
20260905054536 60 4.0 10.0 0.00 3.85 0.00 85 1012.9
20260905054436 60 5.0 10.0 0.00 3.85 0.00 85 1012.8
20260905054336 60 4.0 13.0 0.00 3.85 0.00 85 1012.8
20260905054236 59 2.0 6.0 0.00 3.85 0.00 86 1012.7
20260905054136 59 4.0 87.0 0.00 3.85 0.00 86 1012.7
20260905054036 59 4.0 13.0 0.00 3.85 0.00 86 1012.8
20260905053936 59 4.0 13.0 0.00 3.85 0.00 86 1012.7
20260905053836 59 4.0 13.0 0.00 3.85 0.00 86 1012.8
20260905053736 59 2.0 10.0 0.00 3.85 0.00 86 1012.8
20260905053636 59 3.0 6.0 0.00 3.85 0.00 86 1012.8
20260905053536 59 3.0 6.0 0.00 3.85 0.00 86 1012.8
20260905053436 59 3.0 10.0 0.00 3.85 0.00 86 1012.8
20260905053336 59 4.0 6.0 0.00 3.85 0.00 86 1012.7
20260905053236 59 4.0 10.0 0.00 3.85 0.00 85 1012.7
20260905053136 60 5.0 13.0 0.00 3.85 0.00 85 1012.6
20260905053036 60 3.0 6.0 0.00 3.85 0.00 85 1012.7
20260905052936 60 6.0 13.0 0.00 3.85 0.00 84 1012.7
20260905052836 60 3.0 6.0 0.00 3.85 0.00 85 1012.7
20260905052736 60 3.0 10.0 0.00 3.85 0.00 85 1012.7
20260905052636 60 4.0 10.0 0.00 3.85 0.00 84 1012.6
20260905052537 60 6.0 10.0 0.00 3.85 0.00 85 1012.6
20260905052436 60 5.0 10.0 0.00 3.85 0.00 86 1012.6
20260905052336 60 3.0 6.0 0.00 3.85 0.00 85 1012.6
20260905052236 60 2.0 10.0 0.00 3.85 0.00 85 1012.6
20260905052136 60 5.0 10.0 0.00 3.85 0.00 85 1012.7
20260905052036 60 4.0 6.0 0.00 3.85 0.00 85 1012.7
20260905051936 60 4.0 10.0 0.00 3.85 0.00 85 1012.6
20260905051836 60 4.0 10.0 0.00 3.85 0.00 85 1012.5
20260905051736 60 5.0 10.0 0.00 3.85 0.00 85 1012.5
20260905051636 60 3.0 10.0 0.00 3.85 0.00 85 1012.5
20260905051536 60 4.0 13.0 0.00 3.85 0.00 85 1012.6
20260905051436 60 5.0 10.0 0.00 3.85 0.00 85 1012.5
20260905051336 60 5.0 10.0 0.00 3.85 0.00 85 1012.5
20260905051236 60 4.0 6.0 0.00 3.85 0.00 85 1012.6
20260905051136 60 5.0 10.0 0.00 3.85 0.00 85 1012.5
20260905051036 60 3.0 10.0 0.00 3.85 0.00 85 1012.5
20260905050936 60 5.0 16.0 0.00 3.85 0.00 84 1012.4
20260905050836 60 6.0 13.0 0.00 3.85 0.00 85 1012.5
20260905050736 60 5.0 13.0 0.00 3.85 0.00 85 1012.5
20260905050636 60 4.0 10.0 0.00 3.85 0.00 85 1012.5
20260905050536 60 3.0 6.0 0.00 3.85 0.00 85 1012.5
20260905050436 60 3.0 16.0 0.00 3.85 0.00 85 1012.4
20260905050336 60 4.0 10.0 0.00 3.85 0.00 86 1012.4
20260905050236 60 3.0 6.0 0.00 3.85 0.00 86 1012.4
20260905050136 60 2.0 6.0 0.00 3.85 0.00 85 1012.4
20260905050037 60 4.0 10.0 0.00 3.85 0.00 85 1012.3
20260905045838 60 2.0 10.0 0.00 3.85 0.00 86 1012.4
20260905045736 60 4.0 6.0 0.00 3.85 0.00 85 1012.4
20260905045636 60 5.0 16.0 0.00 3.85 0.00 85 1012.3
20260905045536 60 5.0 16.0 0.00 3.85 0.00 85 1012.4
20260905045436 60 5.0 13.0 0.00 3.85 0.00 86 1012.4
20260905045336 60 5.0 13.0 0.00 3.85 0.00 86 1012.3
20260905045236 60 4.0 10.0 0.00 3.85 0.00 86 1012.3
20260905045136 60 4.0 20.0 0.00 3.85 0.00 86 1012.3
20260905045036 60 4.0 13.0 0.00 3.85 0.00 86 1012.3
20260905044936 60 3.0 10.0 0.00 3.85 0.00 86 1012.4
20260905044836 60 4.0 10.0 0.00 3.85 0.00 86 1012.3
20260905044736 60 4.0 10.0 0.00 3.85 0.00 86 1012.3
20260905044636 60 3.0 6.0 0.00 3.85 0.00 86 1012.3
20260905044536 60 4.0 16.0 0.00 3.85 0.00 86 1012.2
20260905044436 60 5.0 13.0 0.00 3.85 0.00 86 1012.3
20260905044336 60 5.0 10.0 0.00 3.85 0.00 86 1012.2
20260905044236 60 3.0 10.0 0.00 3.85 0.00 86 1012.1
20260905044136 60 1.0 3.0 0.00 3.85 0.00 86 1012.2
20260905044036 60 2.0 6.0 0.00 3.85 0.00 86 1012.1
20260905043936 60 4.0 13.0 0.00 3.85 0.00 86 1012.2
20260905043836 60 5.0 10.0 0.00 3.85 0.00 86 1012.1
20260905043736 60 3.0 13.0 0.00 3.85 0.00 86 1012.1
20260905043636 60 5.0 13.0 0.00 3.85 0.00 87 1012.1
20260905043536 60 3.0 10.0 0.00 3.85 0.00 87 1012.0
20260905043436 60 3.0 16.0 0.00 3.85 0.00 87 1012.1
20260905043336 60 5.0 10.0 0.00 3.85 0.00 87 1012.1
20260905043236 60 5.0 10.0 0.00 3.85 0.00 87 1012.1
20260905043136 60 3.0 6.0 0.00 3.85 0.00 87 1012.1
20260905043036 60 7.0 187.0 0.00 3.85 0.00 86 1012.0
20260905042936 60 5.0 13.0 0.00 3.85 0.00 87 1012.0
20260905042836 60 5.0 13.0 0.00 3.85 0.00 87 1012.0
20260905042736 59 6.0 16.0 0.00 3.85 0.00 87 1012.0
20260905042636 59 4.0 10.0 0.00 3.85 0.00 87 1011.9
20260905042536 60 2.0 6.0 0.00 3.85 0.00 87 1012.0
20260905042436 60 2.0 6.0 0.00 3.85 0.00 87 1011.9
20260905042336 60 5.0 13.0 0.00 3.85 0.00 87 1012.0
20260905042236 60 5.0 10.0 0.00 3.85 0.00 87 1011.9
20260905042136 60 2.0 6.0 0.00 3.85 0.00 87 1011.9
20260905042036 59 2.0 6.0 0.00 3.85 0.00 87 1011.9
20260905041936 59 3.0 6.0 0.00 3.85 0.00 87 1012.0
20260905041836 59 4.0 10.0 0.00 3.85 0.00 87 1011.9
20260905041736 59 4.0 6.0 0.00 3.85 0.00 87 1012.0
20260905041636 59 2.0 10.0 0.00 3.85 0.00 87 1011.9
20260905041536 59 4.0 10.0 0.00 3.85 0.00 87 1011.9
20260905041436 59 4.0 13.0 0.00 3.85 0.00 87 1011.8
20260905041336 59 4.0 13.0 0.00 3.85 0.00 88 1011.8
20260905041236 59 2.0 10.0 0.00 3.85 0.00 88 1011.9
20260905041136 59 2.0 6.0 0.00 3.85 0.00 87 1011.8
20260905041036 59 3.0 10.0 0.00 3.85 0.00 87 1011.9
20260905040936 60 3.0 6.0 0.00 3.85 0.00 87 1011.9
20260905040836 60 5.0 13.0 0.00 3.85 0.00 87 1011.9
20260905040736 60 5.0 10.0 0.00 3.85 0.00 87 1011.8
20260905040636 59 7.0 13.0 0.00 3.85 0.00 88 1011.7
20260905040536 59 4.0 16.0 0.00 3.85 0.00 88 1011.8
20260905040436 60 3.0 6.0 0.00 3.85 0.00 87 1011.8
20260905040336 60 2.0 10.0 0.00 3.85 0.00 87 1011.8
20260905040236 60 4.0 6.0 0.00 3.85 0.00 87 1011.8
20260905040136 60 4.0 16.0 0.00 3.85 0.00 87 1011.8
20260905040036 60 5.0 16.0 0.00 3.85 0.00 87 1011.7
20260905035936 60 5.0 10.0 0.00 3.85 0.00 87 1011.7
20260905035836 60 5.0 10.0 0.00 3.85 0.00 87 1011.7
20260905035736 60 3.0 10.0 0.00 3.85 0.00 87 1011.7
20260905035636 60 4.0 10.0 0.00 3.85 0.00 87 1011.7
20260905035536 60 6.0 10.0 0.00 3.85 0.00 87 1011.7
20260905035436 60 6.0 13.0 0.00 3.85 0.00 88 1011.7
20260905035336 60 3.0 6.0 0.00 3.85 0.00 87 1011.7
20260905035236 60 3.0 13.0 0.00 3.85 0.00 87 1011.7
20260905035136 60 4.0 10.0 0.00 3.85 0.00 87 1011.7
20260905035036 60 3.0 10.0 0.00 3.85 0.00 87 1011.6
20260905034936 60 4.0 10.0 0.00 3.85 0.00 87 1011.5
20260905034836 60 4.0 6.0 0.00 3.85 0.00 88 1011.5
20260905034736 60 2.0 6.0 0.00 3.85 0.00 87 1011.4
20260905034636 60 4.0 10.0 0.00 3.85 0.00 87 1011.4
20260905034536 60 5.0 16.0 0.00 3.85 0.00 87 1011.3
20260905034436 60 5.0 10.0 0.00 3.85 0.00 87 1011.4
20260905034336 60 4.0 13.0 0.00 3.85 0.00 87 1011.4
20260905034236 60 3.0 6.0 0.00 3.85 0.00 87 1011.3
20260905034136 60 2.0 6.0 0.00 3.85 0.00 87 1011.3
20260905034036 60 2.0 6.0 0.00 3.85 0.00 87 1011.4
20260905033936 60 4.0 16.0 0.00 3.85 0.00 87 1011.3
20260905033836 60 4.0 10.0 0.00 3.85 0.00 87 1011.4
20260905033736 60 5.0 20.0 0.00 3.85 0.00 87 1011.4
20260905033636 60 3.0 6.0 0.00 3.85 0.00 87 1011.4
20260905033536 60 3.0 10.0 0.00 3.85 0.00 87 1011.3
20260905033436 60 3.0 13.0 0.00 3.85 0.00 87 1011.3
20260905033336 60 4.0 10.0 0.00 3.85 0.00 87 1011.3
20260905033236 60 4.0 13.0 0.00 3.85 0.00 87 1011.4
20260905033136 60 4.0 13.0 0.00 3.85 0.00 86 1011.3
20260905033036 60 5.0 13.0 0.00 3.85 0.00 87 1011.3
20260905032936 60 3.0 10.0 0.00 3.85 0.00 88 1011.3
20260905032836 60 2.0 6.0 0.00 3.85 0.00 88 1011.2
20260905032736 60 2.0 6.0 0.00 3.85 0.00 88 1011.3
20260905032636 60 2.0 13.0 0.00 3.85 0.00 87 1011.3
20260905032536 60 3.0 6.0 0.00 3.85 0.00 87 1011.3
20260905032436 60 4.0 10.0 0.00 3.85 0.00 87 1011.3
20260905032336 60 4.0 6.0 0.00 3.85 0.00 87 1011.3
20260905032236 60 4.0 10.0 0.00 3.85 0.00 87 1011.3
20260905032136 60 4.0 10.0 0.00 3.85 0.00 88 1011.2
20260905032036 60 4.0 6.0 0.00 3.85 0.00 88 1011.2
20260905031936 60 3.0 10.0 0.00 3.85 0.00 88 1011.2
20260905031836 60 2.0 6.0 0.00 3.85 0.00 88 1011.2
20260905031736 60 4.0 10.0 0.00 3.85 0.00 89 1011.1
20260905031636 60 2.0 6.0 0.00 3.85 0.00 89 1011.1
20260905031536 60 1.0 6.0 0.00 3.85 0.00 88 1011.0
20260905031436 60 2.0 6.0 0.00 3.85 0.00 88 1011.0
20260905031336 60 4.0 10.0 0.00 3.85 0.00 88 1011.0
20260905031236 60 5.0 13.0 0.00 3.85 0.00 88 1011.0
20260905031136 60 5.0 10.0 0.00 3.85 0.00 88 1011.0
20260905031036 60 5.0 10.0 0.00 3.85 0.00 88 1011.0
20260905030936 60 5.0 10.0 0.00 3.85 0.00 88 1011.0
20260905030836 60 3.0 10.0 0.00 3.85 0.00 88 1011.0
20260905030536 60 4.0 10.0 0.00 3.85 0.00 87 1010.8
20260905030436 60 4.0 13.0 0.00 3.85 0.00 87 1010.9
20260905030336 60 5.0 10.0 0.00 3.85 0.00 86 1010.8
20260905030236 60 7.0 13.0 0.00 3.85 0.00 87 1010.9
20260905030136 60 6.0 13.0 0.00 3.85 0.00 87 1010.9
20260905030036 60 6.0 13.0 0.00 3.85 0.00 88 1010.9
20260905025936 60 6.0 10.0 0.00 3.85 0.00 88 1010.8
20260905025836 60 6.0 20.0 0.00 3.85 0.00 89 1010.7
20260905025736 60 4.0 13.0 0.00 3.85 0.00 89 1010.8
20260905025636 60 4.0 6.0 0.00 3.85 0.00 89 1010.8
20260905025536 60 6.0 13.0 0.00 3.85 0.00 89 1010.7
20260905025236 60 6.0 10.0 0.00 3.85 0.00 88 1010.8
20260905025136 60 6.0 20.0 0.00 3.85 0.00 88 1010.6
20260905024936 60 5.0 10.0 0.00 3.85 0.00 90 1273.7
20260905024836 60 4.0 10.0 0.00 3.85 0.00 90 1010.7
20260905024736 60 4.0 10.0 0.00 3.85 0.00 90 1010.6
20260905024636 60 4.0 10.0 0.00 3.85 0.00 90 1010.6
20260905024536 60 4.0 13.0 0.00 3.85 0.00 90 1010.4
20260905024436 60 7.0 13.0 0.00 3.85 0.00 90 1010.6
20260905024336 60 5.0 10.0 0.00 3.85 0.00 90 1010.4
20260905024236 60 3.0 10.0 0.00 3.85 0.00 90 1275.1
20260905024136 60 4.0 10.0 0.00 3.85 0.00 90 1010.4
20260905024036 60 3.0 6.0 0.00 3.85 0.00 90 1275.2
20260905023936 60 3.0 10.0 0.00 3.85 0.00 90 1010.4
20260905023836 60 3.0 10.0 0.00 3.85 0.00 90 1010.3
20260905023736 60 3.0 13.0 0.00 3.85 0.00 90 1010.3
20260905023636 60 5.0 13.0 0.00 3.85 0.00 90 1010.3
20260905023536 60 2.0 13.0 0.00 3.85 0.00 90 1010.2
20260905023436 60 6.0 10.0 0.00 3.85 0.00 90 1273.3
20260905023336 60 13.0 556.0 0.00 3.85 0.00 90 1010.2
20260905023236 60 3.0 10.0 0.00 3.85 0.00 90 1010.3
20260905023136 60 3.0 10.0 0.00 3.85 0.00 90 1010.2
20260905023036 60 3.0 10.0 0.00 3.85 0.00 90 1010.3
20260905022936 60 3.0 10.0 0.00 3.85 0.00 90 1010.3
20260905022836 60 3.0 10.0 0.00 3.85 0.00 90 1010.4
20260905022736 60 4.0 6.0 0.00 3.85 0.00 90 1010.4
20260905022536 60 3.0 10.0 0.00 3.85 0.00 90 1010.6
20260905022436 60 3.0 10.0 0.00 3.85 0.00 90 1010.4
20260905022336 60 4.0 13.0 0.00 3.85 0.00 90 1010.6
20260905022236 60 4.0 10.0 0.00 3.85 0.00 91 1010.6
20260905021936 60 2.0 6.0 0.00 3.85 0.00 91 1010.3
20260905021836 60 2.0 6.0 0.00 3.85 0.00 91 1010.2
20260905021736 60 3.0 6.0 0.00 3.85 0.00 90 1010.2
20260905021636 60 4.0 10.0 0.00 3.85 0.00 91 1010.3
20260905021536 60 5.0 10.0 0.00 3.85 0.00 91 1273.4
20260905021436 60 4.0 10.0 0.00 3.85 0.00 91 1010.3
20260905021336 60 4.0 6.0 0.00 3.85 0.00 91 1010.2
20260905021236 60 5.0 10.0 0.00 3.85 0.00 90 1010.1
20260905021136 60 5.0 16.0 0.00 3.85 0.00 90 1010.2
20260905021036 60 6.0 13.0 0.00 3.85 0.00 90 1010.2
20260905020936 60 2.0 6.0 0.00 3.85 0.00 90 1010.1
20260905020836 60 6.0 16.0 0.00 3.85 0.00 90 1010.2
20260905020736 60 4.0 10.0 0.00 3.85 0.00 90 1010.2
20260905020636 60 7.0 13.0 0.00 3.85 0.00 91 1010.3
20260905020536 60 3.0 10.0 0.00 3.85 0.00 91 1010.3
20260905020436 60 3.0 10.0 0.00 3.85 0.00 91 1010.2
20260905020336 60 3.0 16.0 0.00 3.85 0.00 91 1010.1
20260905020236 60 5.0 13.0 0.00 3.85 0.00 91 1010.1
20260905020136 60 4.0 10.0 0.00 3.85 0.00 92 1010.2
20260905020036 60 6.0 13.0 0.00 3.85 0.00 92 1010.2
20260905015936 60 3.0 10.0 0.00 3.85 0.00 92 1010.3
20260905015836 60 2.0 10.0 0.00 3.85 0.00 92 1010.2
20260905015736 60 4.0 10.0 0.00 3.85 0.00 91 1010.3
20260905015636 60 3.0 13.0 0.00 3.85 0.00 92 1010.4
20260905015536 60 4.0 6.0 0.00 3.85 0.00 92 1010.3
20260905015436 60 4.0 6.0 0.00 3.85 0.00 92 1010.4
20260905015336 60 4.0 10.0 0.00 3.85 0.00 92 1010.3
20260905015236 60 4.0 16.0 0.00 3.85 0.00 92 1010.3
20260905015136 60 4.0 13.0 0.00 3.85 0.00 92 1010.3
20260905015036 60 4.0 6.0 0.00 3.85 0.00 92 1273.2
20260905014936 60 5.0 13.0 0.00 3.85 0.00 91 1010.3
20260905014836 60 6.0 13.0 0.00 3.85 0.00 92 1010.2
20260905014736 60 4.0 13.0 0.00 3.85 0.00 92 1010.0
20260905014636 60 4.0 10.0 0.00 3.85 0.00 92 1010.1
20260905014536 60 3.0 10.0 0.00 3.85 0.00 92 1010.1
20260905014436 60 3.0 10.0 0.00 3.85 0.00 91 1010.0
20260905014336 60 5.0 13.0 0.00 3.85 0.00 92 1010.0
20260905014236 60 2.0 10.0 0.00 3.85 0.00 92 1010.1
20260905014136 60 4.0 6.0 0.00 3.85 0.00 91 1010.1
20260905014036 60 4.0 10.0 0.00 3.85 0.00 91 1010.1
20260905013936 60 3.0 10.0 0.00 3.85 0.00 91 1010.1
20260905013836 60 6.0 13.0 0.00 3.85 0.00 92 1010.1
20260905013736 60 5.0 13.0 0.00 3.85 0.00 92 1010.2
20260905013636 60 4.0 10.0 0.00 3.85 0.00 92 1010.1
20260905013536 60 4.0 6.0 0.00 3.85 0.00 92 1010.1
20260905013436 60 4.0 10.0 0.00 3.85 0.00 92 1010.0
20260905013336 60 4.0 16.0 0.00 3.85 0.00 92 1009.9
20260905013236 60 3.0 6.0 0.00 3.85 0.00 92 1010.0
20260905013136 60 2.0 3.0 0.00 3.85 0.00 92 1010.0
20260905013036 60 2.0 6.0 0.00 3.85 0.00 92 1009.8
20260905012936 60 2.0 6.0 0.00 3.85 0.00 92 1009.8
20260905012836 60 4.0 13.0 0.00 3.85 0.00 92 1274.4
20260905012736 60 3.0 10.0 0.00 3.85 0.00 92 1009.8
20260905012636 60 2.0 13.0 0.00 3.85 0.00 92 1009.8
20260905012536 60 3.0 10.0 0.00 3.85 0.00 92 1009.8
20260905012436 60 3.0 10.0 0.00 3.85 0.00 92 1009.8
20260905012336 60 2.0 6.0 0.00 3.85 0.00 92 1009.9
20260905012236 60 3.0 10.0 0.00 3.85 0.00 92 1010.0
20260905012136 60 2.0 10.0 0.00 3.85 0.00 92 1010.0
20260905012036 60 3.0 10.0 0.00 3.85 0.00 92 1010.0
20260905011936 60 3.0 6.0 0.00 3.85 0.00 92 1009.9
20260905011836 60 6.0 107.0 0.00 3.85 0.00 92 1009.8
20260905011736 60 3.0 10.0 0.00 3.85 0.00 92 1009.9
20260905011636 60 3.0 10.0 0.00 3.85 0.00 92 1010.0
20260905011536 60 3.0 10.0 0.00 3.85 0.00 92 1010.0
20260905011436 60 3.0 10.0 0.00 3.85 0.00 92 1010.0
20260905011336 60 3.0 6.0 0.00 3.85 0.00 92 1010.0
20260905011236 60 3.0 6.0 0.00 3.85 0.00 92 1009.9
20260905011136 60 4.0 13.0 0.00 3.85 0.00 92 1009.7
20260905011036 60 3.0 10.0 0.00 3.85 0.00 92 1009.7
20260905010936 60 4.0 10.0 0.00 3.85 0.00 92 1009.7
20260905010836 60 6.0 10.0 0.00 3.85 0.00 92 1009.7
20260905010736 60 1.0 6.0 0.00 3.85 0.00 92 1009.7
20260905010636 60 4.0 13.0 0.00 3.85 0.00 92 1009.6
20260905010536 60 4.0 10.0 0.00 3.85 0.00 91 1009.8
20260905010436 60 4.0 10.0 0.00 3.85 0.00 91 1009.7
20260905010336 60 4.0 13.0 0.00 3.85 0.00 91 1009.6
20260905010236 60 4.0 10.0 0.00 3.85 0.00 92 1009.7
20260905010136 60 3.0 13.0 0.00 3.85 0.00 92 1009.7
20260905010036 60 3.0 10.0 0.00 3.85 0.00 92 1009.6
20260905005936 60 5.0 10.0 0.00 3.85 0.00 91 1009.8
20260905005836 60 3.0 10.0 0.00 3.85 0.00 91 1009.9
20260905005736 60 5.0 13.0 0.00 3.85 0.00 91 1009.8
20260905005636 60 7.0 16.0 0.00 3.85 0.00 92 1010.0
20260905005536 60 2.0 6.0 0.00 3.85 0.00 92 1010.0
20260905005436 60 4.0 10.0 0.00 3.85 0.00 92 1009.8
20260905005336 60 4.0 10.0 0.00 3.85 0.00 92 1009.9
20260905005236 60 3.0 6.0 0.00 3.85 0.00 92 1009.9
20260905005136 60 4.0 6.0 0.00 3.85 0.00 92 1009.9
20260905005036 60 4.0 10.0 0.00 3.85 0.00 92 1009.9
20260905004936 60 4.0 16.0 0.00 3.85 0.00 92 1009.9
20260905004836 60 5.0 13.0 0.00 3.85 0.00 92 1010.0
20260905004736 60 6.0 13.0 0.00 3.85 0.00 92 1009.9
20260905004637 60 4.0 13.0 0.00 3.85 0.00 92 1009.9
20260905004537 60 4.0 10.0 0.00 3.85 0.00 92 1009.9
20260905004436 60 2.0 10.0 0.00 3.85 0.00 92 1009.8
20260905004336 60 2.0 6.0 0.00 3.85 0.00 92 1009.9
20260905004236 60 5.0 50.0 0.00 3.85 0.00 92 1010.0
20260905004136 60 3.0 6.0 0.00 3.85 0.00 92 1010.1
20260905004036 60 6.0 10.0 0.00 3.85 0.00 92 1010.0
20260905003936 60 4.0 10.0 0.00 3.85 0.00 92 1272.8
20260905003736 60 4.0 10.0 0.00 3.85 0.00 92 1010.1
20260905003636 60 3.0 6.0 0.00 3.85 0.00 92 1010.0
20260905003536 60 5.0 10.0 0.00 3.85 0.00 92 756.2
20260905003336 60 6.0 26.0 0.00 3.85 0.00 91 1010.1
20260905003136 60 8.0 16.0 0.00 3.85 0.00 92 1010.0
20260905003036 60 4.0 16.0 0.00 3.85 0.00 92 1009.9
20260905002936 60 5.0 10.0 0.00 3.85 0.00 92 1009.7
20260905002836 60 4.0 10.0 0.00 3.85 0.00 92 1009.5
20260905002736 60 4.0 13.0 0.00 3.85 0.00 93 1272.2
20260905002636 60 2.0 6.0 0.00 3.85 0.00 92 1009.6
20260905002536 60 4.0 10.0 0.00 3.85 0.00 92 1009.5
20260905002436 60 5.0 13.0 0.00 3.85 0.00 92 1009.4
20260905002336 60 6.0 13.0 0.00 3.85 0.00 92 1009.5
20260905002136 60 5.0 10.0 0.00 3.85 0.00 93 1272.1
20260905002036 60 4.0 13.0 0.00 3.85 0.00 93 1009.4
20260905001936 60 2.0 10.0 0.00 3.85 0.00 93 1009.1
20260905001836 60 1.0 10.0 0.00 3.85 0.00 92 1008.8
20260905001736 60 6.0 214.0 0.00 3.85 0.00 93 1008.9
20260905001636 60 3.0 10.0 0.00 3.85 0.00 92 1009.2
20260905001536 60 4.0 10.0 0.00 3.85 0.00 92 1009.2
20260905001436 60 4.0 10.0 0.00 3.85 0.00 92 1009.2
20260905001336 60 6.0 13.0 0.00 3.85 0.00 92 1009.3
20260905001236 60 5.0 20.0 0.00 3.85 0.00 92 1009.4
20260905001136 60 5.0 20.0 0.00 3.85 0.00 92 1009.2
20260905001036 60 5.0 13.0 0.00 3.85 0.00 91 1009.2
20260905000936 60 5.0 13.0 0.00 3.85 0.00 91 1009.2
20260905000836 60 5.0 10.0 0.00 3.85 0.00 91 1009.2
20260905000736 61 5.0 16.0 0.00 3.85 0.00 90 1273.1
20260905000636 61 6.0 10.0 0.00 3.85 0.00 90 1009.1
20260905000536 61 6.0 16.0 0.00 3.85 0.00 90 1009.2
20260905000436 61 4.0 6.0 0.00 3.85 0.00 89 1009.2
20260905000336 61 4.0 16.0 0.00 3.85 0.00 89 1009.4
20260905000236 61 6.0 13.0 0.00 3.85 0.00 90 1009.2
20260905000136 61 5.0 16.0 0.00 3.85 0.00 89 1009.4
20260905000036 61 6.0 13.0 0.00 3.85 0.00 89 1009.3
20260904235936 61 5.0 13.0 0.00 3.85 0.00 89 1009.3
20260904235836 61 7.0 13.0 0.00 3.85 0.00 89 1273.4
20260904235736 61 6.0 70.0 0.00 3.85 0.00 89 1009.2
20260904235636 61 5.0 13.0 0.00 3.85 0.00 89 1009.2
20260904235536 61 5.0 10.0 0.00 3.85 0.00 89 1009.1
20260904235436 61 5.0 10.0 0.00 3.85 0.00 89 1009.1
20260904235336 61 5.0 10.0 0.00 3.85 0.00 89 1008.9
20260904235236 61 5.0 10.0 0.00 3.85 0.00 88 1008.9
20260904235136 61 7.0 13.0 0.00 3.85 0.00 89 1009.0
20260904235036 61 5.0 20.0 0.00 3.85 0.00 89 1008.9
20260904234936 61 6.0 13.0 0.00 3.85 0.00 89 1008.9
20260904234836 61 4.0 13.0 0.00 3.85 0.00 89 1008.7
20260904234736 61 6.0 13.0 0.00 3.85 0.00 89 1008.8
20260904234636 61 5.0 13.0 0.00 3.85 0.00 89 1008.7
20260904234536 61 6.0 13.0 0.00 3.85 0.00 90 1008.6
20260904234436 61 3.0 10.0 0.00 3.85 0.00 89 1008.7
20260904234336 61 2.0 6.0 0.00 3.85 0.00 89 1008.6
20260904234236 61 4.0 10.0 0.00 3.85 0.00 89 1008.6
20260904234136 61 5.0 10.0 0.00 3.85 0.00 88 1008.7
20260904233936 61 4.0 10.0 0.00 3.85 0.00 89 1008.7
20260904233836 61 5.0 10.0 0.00 3.85 0.00 90 1577.5
20260904233736 61 3.0 6.0 0.00 3.85 0.00 89 1008.8
20260904233636 61 3.0 10.0 0.00 3.85 0.00 89 1008.7
20260904233536 62 3.0 10.0 0.00 3.85 0.00 89 1008.9
20260904233436 62 2.0 10.0 0.00 3.85 0.00 89 1008.8
20260904233336 62 4.0 13.0 0.00 3.85 0.00 88 1008.8
20260904233236 62 6.0 13.0 0.00 3.85 0.00 89 1272.6
20260904233136 62 5.0 20.0 0.00 3.85 0.00 89 1008.9
20260904233036 62 6.0 16.0 0.00 3.85 0.00 89 1008.8
20260904232936 62 6.0 16.0 0.00 3.85 0.00 89 1270.7
20260904232736 62 5.0 13.0 0.00 3.85 0.00 90 1008.8
20260904232636 62 2.0 10.0 0.00 3.85 0.00 90 1008.8
20260904232536 62 3.0 16.0 0.00 3.85 0.00 89 1272.4
20260904232436 62 6.0 13.0 0.00 3.85 0.00 89 1008.8
20260904232336 62 4.0 10.0 0.00 3.85 0.00 89 1008.9
20260904232236 62 5.0 16.0 0.00 3.85 0.00 89 1009.1
20260904232136 62 5.0 13.0 0.00 3.85 0.00 89 1008.9
20260904232036 62 5.0 13.0 0.00 3.85 0.00 89 1008.9
20260904231936 62 4.0 10.0 0.00 3.85 0.00 89 1008.8
20260904231836 62 4.0 10.0 0.00 3.85 0.00 89 1008.7
20260904231736 62 2.0 16.0 0.00 3.85 0.00 89 1008.6
20260904231636 62 5.0 13.0 0.00 3.85 0.00 89 1270.2
20260904231536 62 6.0 13.0 0.00 3.85 0.00 89 1008.7
20260904231436 62 4.0 10.0 0.00 3.85 0.00 90 1008.7
20260904231336 62 4.0 10.0 0.00 3.85 0.00 90 1008.7
20260904231236 62 3.0 16.0 0.00 3.85 0.00 90 1008.7
20260904231136 63 4.0 10.0 0.00 3.85 0.00 90 1008.6
20260904231036 63 5.0 10.0 0.00 3.85 0.00 90 1008.6
20260904230936 62 5.0 13.0 0.00 3.85 0.00 91 1008.6
20260904230736 62 3.0 6.0 0.00 3.85 0.00 91 1008.5
20260904230636 63 3.0 10.0 0.00 3.85 0.00 91 1008.6
20260904230536 63 3.0 10.0 0.00 3.85 0.00 90 1008.5
20260904230436 63 5.0 13.0 0.00 3.85 0.00 90 1008.6
20260904230336 63 6.0 10.0 0.00 3.85 0.00 90 1008.6
20260904230236 63 7.0 13.0 0.00 3.85 0.00 91 1008.7
20260904230136 63 5.0 10.0 0.00 3.85 0.00 93 1008.6
20260904230036 63 3.0 10.0 0.00 3.85 0.00 92 1008.5
20260904225936 63 3.0 10.0 0.00 3.85 0.00 92 1008.6
20260904225836 63 2.0 6.0 0.00 3.85 0.00 92 1008.5
20260904225736 63 2.0 6.0 0.00 3.85 0.00 92 1008.4
20260904225636 63 4.0 10.0 0.00 3.85 0.00 92 1008.3
20260904225536 63 3.0 16.0 0.00 3.85 0.00 92 1271.8
20260904225436 63 3.0 10.0 0.00 3.85 0.00 93 1008.3
20260904225336 63 2.0 13.0 0.00 3.85 0.00 93 1008.3
20260904225236 63 3.0 10.0 0.00 3.85 0.00 92 1008.4
20260904225136 63 4.0 10.0 0.00 3.85 0.00 92 1008.2
20260904225036 63 3.0 10.0 0.00 3.85 0.00 92 1008.3
20260904224936 63 4.0 10.0 0.00 3.85 0.00 92 1008.2
20260904224836 63 4.0 13.0 0.00 3.85 0.00 92 1271.3
20260904224736 63 3.0 10.0 0.00 3.85 0.00 93 1008.0
20260904224636 63 1.0 6.0 0.00 3.85 0.00 92 1007.9
20260904224536 63 2.0 13.0 0.00 3.85 0.00 92 1008.0
20260904224436 63 2.0 10.0 0.00 3.85 0.00 93 1008.0
20260904224336 63 1.0 3.0 0.00 3.85 0.00 92 1269.4
20260904224236 63 2.0 6.0 0.00 3.85 0.00 93 1008.0
20260904224136 64 3.0 6.0 0.00 3.85 0.00 93 1008.1
20260904224036 64 2.0 6.0 0.00 3.85 0.00 93 1008.0
20260904223936 64 2.0 6.0 0.00 3.85 0.00 92 1008.2
20260904223836 64 2.0 13.0 0.00 3.85 0.00 92 1008.2
20260904223736 64 2.0 6.0 0.00 3.85 0.00 92 1008.2
20260904223636 64 3.0 10.0 0.00 3.85 0.00 92 1008.1
20260904223536 64 3.0 10.0 0.00 3.85 0.00 93 1008.2
20260904223436 64 1.0 6.0 0.00 3.85 0.00 93 1008.1
20260904223336 64 2.0 6.0 0.00 3.85 0.00 93 1008.2
20260904223236 64 2.0 10.0 0.00 3.85 0.00 93 1008.1
20260904223136 64 2.0 6.0 0.00 3.85 0.00 93 1008.1
20260904223036 64 2.0 6.0 0.00 3.85 0.00 93 1008.0
20260904222936 64 2.0 6.0 0.00 3.85 0.00 93 1007.9
20260904222836 64 2.0 6.0 0.00 3.85 0.00 93 1009.7
20260904222736 64 2.0 6.0 0.00 3.85 0.00 93 1009.6
20260904222636 64 2.0 6.0 0.00 3.85 0.00 93 1009.7
20260904222536 64 2.0 16.0 0.00 3.85 0.00 93 1009.6
20260904222436 64 3.0 10.0 0.00 3.85 0.00 93 1007.8
20260904222336 64 2.0 6.0 0.00 3.85 0.00 93 1007.7
20260904222236 64 2.0 6.0 0.00 3.85 0.00 93 1007.6
20260904222136 63 2.0 10.0 0.00 3.85 0.00 93 1007.7
20260904222036 64 2.0 10.0 0.00 3.85 0.00 94 1007.8
20260904221936 63 2.0 6.0 0.00 3.85 0.00 94 1007.8
20260904221836 63 2.0 10.0 0.00 3.85 0.00 94 1007.7
20260904221736 63 1.0 10.0 0.00 3.85 0.00 94 1007.6
20260904221636 63 2.0 6.0 0.00 3.85 0.00 94 1007.5
20260904221536 63 2.0 6.0 0.00 3.85 0.00 95 1007.5
20260904221436 63 1.0 6.0 0.00 3.85 0.00 95 1268.7
20260904221336 63 2.0 6.0 0.00 3.85 0.00 95 1268.6
20260904221236 63 1.0 6.0 0.00 3.85 0.00 95 1007.3
20260904221136 63 2.0 6.0 0.00 3.85 0.00 95 1007.2
20260904221036 63 2.0 6.0 0.00 3.85 0.00 95 1007.2
20260904220936 63 2.0 10.0 0.00 3.85 0.00 95 1007.2
20260904220736 63 2.0 6.0 0.00 3.85 0.00 95 1007.2
20260904220536 63 3.0 10.0 0.00 3.85 0.00 95 1007.4
20260904220436 63 0.0 3.0 0.00 3.85 0.00 95 1007.4
20260904220336 63 1.0 3.0 0.00 3.85 0.00 95 1007.6
20260904220236 63 0.0 3.0 0.00 3.85 0.00 95 1268.8
20260904220136 63 0.0 3.0 0.00 3.85 0.00 95 1007.6
20260904220036 63 0.0 3.0 0.00 3.85 0.00 95 1007.6
20260904215936 63 2.0 6.0 0.00 3.85 0.00 95 1007.6
20260904215836 63 3.0 10.0 0.00 3.85 0.00 95 1007.6
20260904215736 63 1.0 6.0 0.00 3.85 0.00 95 1270.7
20260904215636 63 2.0 6.0 0.00 3.85 0.00 95 1007.7
20260904215536 63 1.0 3.0 0.00 3.85 0.00 95 1007.7
20260904215436 63 1.0 3.0 0.00 3.85 0.00 95 1007.7
20260904215336 63 1.0 6.0 0.00 3.85 0.00 95 1007.8
20260904215236 63 3.0 6.0 0.00 3.85 0.00 95 1007.7
20260904215136 63 2.0 10.0 0.00 3.85 0.00 95 1007.7
20260904214936 63 1.0 6.0 0.00 3.85 0.00 95 1268.9
20260904214736 63 1.0 3.0 0.00 3.85 0.00 94 1007.6
20260904214636 63 1.0 6.0 0.00 3.85 0.00 94 1007.6
20260904214536 63 1.0 13.0 0.86 3.85 0.00 94 1009.3
20260904214436 63 2.0 6.0 0.86 3.85 0.00 94 1007.5
20260904214336 63 1.0 3.0 0.86 3.85 0.00 94 1268.8
20260904214136 63 3.0 10.0 0.86 3.85 0.00 94 1007.6
20260904214036 63 3.0 10.0 0.86 3.85 0.00 94 1007.5
20260904213936 63 1.0 3.0 0.86 3.85 0.00 94 1007.5
20260904213836 63 2.0 6.0 0.86 3.85 0.00 94 1007.5
20260904213736 63 2.0 10.0 0.86 3.85 0.00 95 1270.6
20260904213636 63 1.0 6.0 0.86 3.85 0.00 94 1007.5
20260904213536 63 0.0 3.0 0.86 3.85 0.00 94 1007.4
20260904213436 63 0.0 6.0 0.86 3.85 0.00 94 1246.0
20260904213336 63 2.0 6.0 0.86 3.85 0.00 94 1007.4
20260904213236 63 2.0 6.0 0.86 3.85 0.00 94 754.1
20260904213136 63 0.0 3.0 0.86 3.85 0.00 94 1007.4
20260904213036 63 2.0 6.0 0.86 3.85 0.00 94 1007.6
20260904212836 62 2.0 6.0 0.86 3.85 0.00 94 1007.8
20260904212736 62 3.0 10.0 0.86 3.85 0.00 94 1269.0
20260904212636 62 1.0 6.0 0.86 3.85 0.00 94 1007.7
20260904212536 62 1.0 6.0 0.86 3.85 0.00 94 1007.7
20260904212336 63 1.0 6.0 0.86 3.85 0.00 94 1007.8
20260904212236 63 2.0 6.0 0.86 3.85 0.00 94 1007.9
20260904212136 62 2.0 6.0 0.86 3.85 0.00 94 1007.8
20260904212036 63 2.0 6.0 0.86 3.85 0.00 94 1007.8
20260904211936 63 2.0 6.0 0.86 3.85 0.00 94 1007.7
20260904211835 63 2.0 6.0 0.86 3.85 0.00 94 1007.7
20260904211736 63 2.0 6.0 0.86 3.85 0.00 94 1007.8
20260904211636 63 2.0 6.0 0.86 3.85 0.00 94 1273.4
20260904211436 63 0.0 3.0 0.86 3.85 0.00 94 1007.7
20260904211336 63 1.0 10.0 0.86 3.85 0.00 94 1007.8
20260904211036 63 1.0 3.0 0.86 3.85 0.00 94 1270.8
20260904210936 63 2.0 6.0 0.86 3.85 0.00 94 1269.0
20260904210735 63 2.0 6.0 0.86 3.85 0.00 94 1007.8
20260904210635 63 2.0 13.0 0.86 3.85 0.00 94 1007.8
20260904210436 63 1.0 6.0 0.86 3.85 0.00 94 1007.6
20260904205936 63 1.0 3.0 0.86 3.85 0.00 94 1268.8
20260904205836 63 1.0 6.0 0.86 3.85 0.00 94 1268.7
20260904205736 63 1.0 3.0 0.86 3.85 0.00 94 1007.4
20260904205536 63 2.0 3.0 0.86 3.85 0.00 95 1020.5
20260904205436 63 2.0 6.0 0.86 3.85 0.00 95 1473.6
20260904205335 63 1.0 3.0 0.86 3.85 0.00 94 976.3
20260904205235 63 0.0 3.0 1.65 3.85 0.00 94 1052.0
20260904205135 63 1.0 6.0 1.65 3.85 0.00 94 976.3
20260904204936 63 1.0 6.0 1.65 3.85 0.00 95 901.3
20260904204736 63 1.0 3.0 1.65 3.85 0.00 94 1007.5
20260904204535 63 0.0 6.0 1.65 3.85 0.00 95 1268.7
20260904204435 63 1.0 6.0 0.78 3.76 0.00 94 1270.8
20260904204336 63 0.0 3.0 0.78 3.76 0.00 94 1007.5
20260904203836 63 1.0 6.0 2.40 3.76 0.00 94 1270.8
20260904203736 63 1.0 6.0 2.40 3.76 0.00 94 1007.6
20260904203636 63 2.0 3.0 3.42 3.76 0.00 94 1007.6
20260904203435 63 2.0 6.0 3.42 3.76 0.00 94 1270.4
20260904203235 63 1.0 6.0 5.27 3.76 0.00 94 1270.4
20260904203036 63 2.0 6.0 7.48 3.76 0.00 94 1008.6
20260904202636 63 2.0 6.0 9.44 3.76 0.00 94 1007.7
20260904202536 63 3.0 6.0 9.44 3.76 0.00 94 1007.7
20260904202436 63 0.0 3.0 9.44 3.76 0.00 94 1007.6
20260904202336 64 2.0 10.0 3.27 3.76 0.00 93 1007.7
20260904202135 63 4.0 6.0 3.27 3.76 0.00 93 1007.9
20260904202036 63 4.0 10.0 3.27 3.76 0.00 94 1008.0
20260904201935 64 2.0 3.0 3.27 3.76 0.00 94 754.7
20260904201836 64 2.0 6.0 3.27 3.76 0.00 93 1008.1
20260904201735 64 3.0 6.0 3.27 3.76 0.00 93 1707.5
20260904201636 64 2.0 13.0 3.27 3.76 0.00 93 1205.7
20260904201536 64 3.0 10.0 3.53 3.76 0.00 93 1008.2
20260904201436 64 4.0 10.0 3.53 3.76 0.00 93 1008.3
20260904201336 64 4.0 16.0 3.53 3.76 0.00 93 1271.8
20260904201236 64 5.0 10.0 3.53 3.76 0.00 94 1008.2
20260904201036 64 4.0 10.0 3.53 3.76 0.00 94 1008.1
20260904200936 64 2.0 6.0 3.53 3.76 0.00 94 1008.1
20260904200736 64 3.0 6.0 3.76 3.76 0.00 95 1007.9
20260904200535 64 1.0 6.0 3.76 3.76 0.00 95 1007.7
20260904200435 64 3.0 6.0 3.76 3.76 0.00 94 1271.2
20260904200335 65 4.0 10.0 3.76 3.76 0.00 94 1007.9
20260904200136 65 3.0 6.0 3.76 3.76 0.00 94 1008.0
20260904195935 65 3.0 10.0 3.76 3.76 0.00 94 1008.0
20260904195836 65 5.0 13.0 3.76 3.76 0.00 95 1008.0
20260904195535 65 3.0 10.0 3.76 3.76 0.00 96 1269.6
20260904195435 65 4.0 10.0 3.76 3.76 0.00 96 1008.4
20260904195335 66 4.0 10.0 3.76 3.76 0.00 97 1269.8
20260904195236 66 3.0 6.0 3.76 3.76 0.00 97 1008.3
20260904195135 66 3.0 23.0 3.68 3.68 0.00 97 1269.8
20260904195035 66 4.0 10.0 3.68 3.68 0.00 97 1269.9
20260904194935 66 2.0 6.0 3.68 3.68 0.00 97 1271.8
20260904194836 66 4.0 10.0 3.68 3.68 0.00 97 1008.3
20260904194536 66 5.0 16.0 3.68 3.68 0.00 96 1008.0
20260904194235 66 7.0 16.0 3.68 3.68 0.00 95 754.7
20260904194035 66 6.0 13.0 3.60 3.60 0.00 94 1378.2
20260904193935 66 10.0 23.0 3.60 3.60 0.00 94 1007.9
20260904193835 66 8.0 20.0 3.60 3.60 0.00 94 1011.4
20260904193735 66 6.0 16.0 3.51 3.51 0.00 94 754.4
20260904193535 66 5.0 13.0 3.42 3.42 0.00 93 1007.7
20260904193335 67 6.0 16.0 3.42 3.42 0.00 92 1268.2
20260904193235 67 8.0 13.0 3.33 3.33 0.00 92 1007.5
20260904193035 67 8.0 20.0 3.12 3.12 0.00 90 1266.6
20260904192936 67 5.0 10.0 3.01 3.01 0.00 89 966.1
20260904192735 68 4.0 6.0 2.92 2.92 0.00 88 1381.4
20260904192635 68 3.0 10.0 2.92 2.92 0.00 87 1842.9
20260904192335 68 4.0 10.0 2.81 2.81 0.00 86 1375.1